Wetterdaten: Dienstag, 29.01.2013
Datum Zeit Temp. Aussen +5cm Feuchte Auss BlattFeu 1 Luftdruck Regen Sonnenschein UV Solar Windben
29.01.2013 00:00 6,9 C 4,6 C 90 % 15 lf 1006,9 hPa 0,0 l/m 0 min 0,0 UV-I 0 W/m 41,2 km/h (6 Bft)
29.01.2013 00:02 6,9 C 4,6 C 90 % 15 lf 1006,8 hPa 0,0 l/m 0 min 0,0 UV-I 0 W/m 28,3 km/h (4 Bft)
29.01.2013 00:04 6,9 C 4,6 C 90 % 15 lf 1006,7 hPa 0,0 l/m 0 min 0,0 UV-I 0 W/m 15,4 km/h (3 Bft)
29.01.2013 00:06 6,8 C 4,6 C 91 % 15 lf 1006,7 hPa 0,0 l/m 0 min 0,0 UV-I 0 W/m 20,6 km/h (4 Bft)
29.01.2013 00:08 6,8 C 4,6 C 91 % 15 lf 1006,9 hPa 0,0 l/m 0 min 0,0 UV-I 0 W/m 23,2 km/h (4 Bft)
29.01.2013 00:10 6,8 C 4,6 C 91 % 15 lf 1006,7 hPa 0,0 l/m 0 min 0,0 UV-I 0 W/m 23,2 km/h (4 Bft)
29.01.2013 00:12 6,9 C 4,6 C 91 % 15 lf 1006,5 hPa 0,0 l/m 0 min 0,0 UV-I 0 W/m 51,5 km/h (7 Bft)
29.01.2013 00:14 6,8 C 5,1 C 91 % 15 lf 1006,6 hPa 0,0 l/m 0 min 0,0 UV-I 0 W/m 15,4 km/h (3 Bft)
29.01.2013 00:16 6,9 C 5,1 C 91 % 15 lf 1006,6 hPa 0,0 l/m 0 min 0,0 UV-I 0 W/m 28,3 km/h (4 Bft)
29.01.2013 00:18 6,9 C 5,1 C 91 % 15 lf 1006,7 hPa 0,0 l/m 0 min 0,0 UV-I 0 W/m 25,7 km/h (4 Bft)
29.01.2013 00:20 6,9 C 5,1 C 91 % 15 lf 1006,6 hPa 0,0 l/m 0 min 0,0 UV-I 0 W/m 30,9 km/h (5 Bft)
29.01.2013 00:22 6,9 C 5,1 C 91 % 15 lf 1006,4 hPa 0,0 l/m 0 min 0,0 UV-I 0 W/m 23,2 km/h (4 Bft)
29.01.2013 00:24 6,9 C 5,1 C 91 % 15 lf 1006,6 hPa 0,0 l/m 0 min 0,0 UV-I 0 W/m 12,9 km/h (3 Bft)
29.01.2013 00:26 7,0 C 5,1 C 91 % 15 lf 1006,6 hPa 0,0 l/m 0 min 0,0 UV-I 0 W/m 18,0 km/h (3 Bft)
29.01.2013 00:28 7,1 C 5,7 C 90 % 15 lf 1006,5 hPa 0,0 l/m 0 min 0,0 UV-I 0 W/m 28,3 km/h (4 Bft)
29.01.2013 00:30 7,1 C 5,7 C 91 % 15 lf 1006,5 hPa 0,0 l/m 0 min 0,0 UV-I 0 W/m 38,6 km/h (5 Bft)
29.01.2013 00:32 7,1 C 5,7 C 90 % 15 lf 1006,5 hPa 0,0 l/m 0 min 0,0 UV-I 0 W/m 30,9 km/h (5 Bft)
29.01.2013 00:34 7,2 C 5,7 C 90 % 15 lf 1006,4 hPa 0,0 l/m 0 min 0,0 UV-I 0 W/m 25,7 km/h (4 Bft)
29.01.2013 00:36 7,2 C 5,7 C 90 % 15 lf 1006,5 hPa 0,2 l/m 0 min 0,0 UV-I 0 W/m 28,3 km/h (4 Bft)
29.01.2013 00:38 7,2 C 5,7 C 90 % 15 lf 1006,5 hPa 0,0 l/m 0 min 0,0 UV-I 0 W/m 48,9 km/h (6 Bft)
29.01.2013 00:40 7,2 C 6,2 C 90 % 15 lf 1006,4 hPa 0,0 l/m 0 min 0,0 UV-I 0 W/m 23,2 km/h (4 Bft)
29.01.2013 00:42 7,3 C 6,2 C 90 % 15 lf 1006,5 hPa 0,0 l/m 0 min 0,0 UV-I 0 W/m 30,9 km/h (5 Bft)
29.01.2013 00:44 7,4 C 6,2 C 90 % 15 lf 1006,4 hPa 0,0 l/m 0 min 0,0 UV-I 0 W/m 20,6 km/h (4 Bft)
29.01.2013 00:46 7,4 C 6,2 C 90 % 15 lf 1006,5 hPa 0,0 l/m 0 min 0,0 UV-I 0 W/m 36,0 km/h (5 Bft)
29.01.2013 00:48 7,4 C 6,2 C 90 % 14 lf 1006,4 hPa 0,0 l/m 0 min 0,0 UV-I 0 W/m 25,7 km/h (4 Bft)
29.01.2013 00:50 7,4 C 6,2 C 89 % 11 lf 1006,6 hPa 0,0 l/m 0 min 0,0 UV-I 0 W/m 30,9 km/h (5 Bft)
29.01.2013 00:52 7,5 C 6,2 C 89 % 4 lf 1006,7 hPa 0,0 l/m 0 min 0,0 UV-I 0 W/m 25,7 km/h (4 Bft)
29.01.2013 00:54 7,6 C 6,2 C 89 % 2 lf 1006,5 hPa 0,0 l/m 0 min 0,0 UV-I 0 W/m 28,3 km/h (4 Bft)
29.01.2013 00:56 7,6 C 6,2 C 89 % 0 lf 1006,4 hPa 0,0 l/m 0 min 0,0 UV-I 0 W/m 25,7 km/h (4 Bft)
29.01.2013 00:58 7,6 C 6,2 C 89 % 0 lf 1006,4 hPa 0,0 l/m 0 min 0,0 UV-I 0 W/m 18,0 km/h (3 Bft)
29.01.2013 01:00 7,7 C 6,2 C 89 % 0 lf 1006,4 hPa 0,0 l/m 0 min 0,0 UV-I 0 W/m 36,0 km/h (5 Bft)
29.01.2013 01:02 7,7 C 6,2 C 89 % 0 lf 1006,3 hPa 0,0 l/m 0 min 0,0 UV-I 0 W/m 36,0 km/h (5 Bft)
29.01.2013 01:04 7,7 C 6,2 C 89 % 0 lf 1006,4 hPa 0,0 l/m 0 min 0,0 UV-I 0 W/m 20,6 km/h (4 Bft)
29.01.2013 01:06 7,7 C 6,2 C 89 % 0 lf 1006,5 hPa 0,0 l/m 0 min 0,0 UV-I 0 W/m 46,3 km/h (6 Bft)
29.01.2013 01:08 7,7 C 6,2 C 89 % 0 lf 1006,4 hPa 0,0 l/m 0 min 0,0 UV-I 0 W/m 18,0 km/h (3 Bft)
29.01.2013 01:10 7,7 C 6,2 C 89 % 0 lf 1006,5 hPa 0,0 l/m 0 min 0,0 UV-I 0 W/m 28,3 km/h (4 Bft)
29.01.2013 01:12 7,8 C 6,2 C 89 % 0 lf 1006,3 hPa 0,0 l/m 0 min 0,0 UV-I 0 W/m 33,5 km/h (5 Bft)
29.01.2013 01:14 7,8 C 6,2 C 89 % 0 lf 1006,3 hPa 0,0 l/m 0 min 0,0 UV-I 0 W/m 30,9 km/h (5 Bft)
29.01.2013 01:16 7,8 C 6,2 C 89 % 0 lf 1006,4 hPa 0,0 l/m 0 min 0,0 UV-I 0 W/m 28,3 km/h (4 Bft)
29.01.2013 01:18 7,8 C 6,2 C 89 % 0 lf 1006,3 hPa 0,0 l/m 0 min 0,0 UV-I 0 W/m 36,0 km/h (5 Bft)
29.01.2013 01:20 7,8 C 6,2 C 89 % 0 lf 1006,5 hPa 0,0 l/m 0 min 0,0 UV-I 0 W/m 28,3 km/h (4 Bft)
29.01.2013 01:22 7,8 C 6,2 C 89 % 0 lf 1006,4 hPa 0,0 l/m 0 min 0,0 UV-I 0 W/m 38,6 km/h (5 Bft)
29.01.2013 01:24 7,8 C 6,2 C 89 % 0 lf 1006,4 hPa 0,0 l/m 0 min 0,0 UV-I 0 W/m 38,6 km/h (5 Bft)
29.01.2013 01:26 7,8 C 6,2 C 89 % 0 lf 1006,4 hPa 0,0 l/m 0 min 0,0 UV-I 0 W/m 43,8 km/h (6 Bft)
29.01.2013 01:28 7,8 C 6,2 C 89 % 0 lf 1006,4 hPa 0,0 l/m 0 min 0,0 UV-I 0 W/m 20,6 km/h (4 Bft)
29.01.2013 01:30 7,8 C 6,2 C 89 % 0 lf 1006,4 hPa 0,0 l/m 0 min 0,0 UV-I 0 W/m 36,0 km/h (5 Bft)
29.01.2013 01:32 7,8 C 6,2 C 89 % 0 lf 1006,6 hPa 0,0 l/m 0 min 0,0 UV-I 0 W/m 25,7 km/h (4 Bft)
29.01.2013 01:34 7,9 C 6,2 C 89 % 0 lf 1006,4 hPa 0,0 l/m 0 min 0,0 UV-I 0 W/m 23,2 km/h (4 Bft)
29.01.2013 01:36 7,9 C 6,8 C 89 % 0 lf 1006,4 hPa 0,0 l/m 0 min 0,0 UV-I 0 W/m 30,9 km/h (5 Bft)
29.01.2013 01:38 7,9 C 6,8 C 89 % 0 lf 1006,4 hPa 0,0 l/m 0 min 0,0 UV-I 0 W/m 41,2 km/h (6 Bft)
29.01.2013 01:40 7,9 C 6,8 C 89 % 0 lf 1006,4 hPa 0,0 l/m 0 min 0,0 UV-I 0 W/m 25,7 km/h (4 Bft)
29.01.2013 01:42 7,9 C 6,8 C 88 % 0 lf 1006,6 hPa 0,0 l/m 0 min 0,0 UV-I 0 W/m 20,6 km/h (4 Bft)
29.01.2013 01:44 8,0 C 6,8 C 88 % 0 lf 1006,3 hPa 0,0 l/m 0 min 0,0 UV-I 0 W/m 28,3 km/h (4 Bft)
29.01.2013 01:46 8,0 C 6,8 C 88 % 0 lf 1006,4 hPa 0,0 l/m 0 min 0,0 UV-I 0 W/m 33,5 km/h (5 Bft)
29.01.2013 01:48 8,1 C 6,8 C 88 % 0 lf 1006,6 hPa 0,0 l/m 0 min 0,0 UV-I 0 W/m 30,9 km/h (5 Bft)
29.01.2013 01:50 8,1 C 6,8 C 88 % 0 lf 1006,4 hPa 0,0 l/m 0 min 0,0 UV-I 0 W/m 36,0 km/h (5 Bft)
29.01.2013 01:52 8,1 C 6,8 C 88 % 0 lf 1006,5 hPa 0,0 l/m 0 min 0,0 UV-I 0 W/m 18,0 km/h (3 Bft)
29.01.2013 01:54 8,1 C 6,8 C 88 % 0 lf 1006,6 hPa 0,0 l/m 0 min 0,0 UV-I 0 W/m 28,3 km/h (4 Bft)
29.01.2013 01:56 8,2 C 6,8 C 88 % 0 lf 1006,5 hPa 0,0 l/m 0 min 0,0 UV-I 0 W/m 33,5 km/h (5 Bft)
29.01.2013 01:58 8,2 C 6,8 C 88 % 0 lf 1006,5 hPa 0,0 l/m 0 min 0,0 UV-I 0 W/m 20,6 km/h (4 Bft)
29.01.2013 02:00 8,2 C 6,8 C 88 % 0 lf 1006,6 hPa 0,0 l/m 0 min 0,0 UV-I 0 W/m 20,6 km/h (4 Bft)
29.01.2013 02:02 8,2 C 6,8 C 88 % 0 lf 1006,8 hPa 0,0 l/m 0 min 0,0 UV-I 0 W/m 30,9 km/h (5 Bft)
29.01.2013 02:04 8,2 C 6,8 C 88 % 0 lf 1006,5 hPa 0,0 l/m 0 min 0,0 UV-I 0 W/m 25,7 km/h (4 Bft)
29.01.2013 02:06 8,2 C 6,8 C 88 % 0 lf 1006,5 hPa 0,0 l/m 0 min 0,0 UV-I 0 W/m 25,7 km/h (4 Bft)
29.01.2013 02:08 8,2 C 6,8 C 88 % 1 lf 1006,5 hPa 0,0 l/m 0 min 0,0 UV-I 0 W/m 43,8 km/h (6 Bft)
29.01.2013 02:10 8,2 C 6,8 C 88 % 0 lf 1006,6 hPa 0,0 l/m 0 min 0,0 UV-I 0 W/m 23,2 km/h (4 Bft)
29.01.2013 02:12 8,2 C 6,8 C 88 % 0 lf 1006,5 hPa 0,0 l/m 0 min 0,0 UV-I 0 W/m 23,2 km/h (4 Bft)
29.01.2013 02:14 8,3 C 6,8 C 88 % 2 lf 1006,6 hPa 0,0 l/m 0 min 0,0 UV-I 0 W/m 41,2 km/h (6 Bft)
29.01.2013 02:16 8,3 C 6,8 C 89 % 3 lf 1006,6 hPa 0,0 l/m 0 min 0,0 UV-I 0 W/m 33,5 km/h (5 Bft)
29.01.2013 02:18 8,3 C 6,8 C 89 % 0 lf 1006,8 hPa 0,0 l/m 0 min 0,0 UV-I 0 W/m 23,2 km/h (4 Bft)
29.01.2013 02:20 8,3 C 6,8 C 89 % 1 lf 1006,6 hPa 0,0 l/m 0 min 0,0 UV-I 0 W/m 20,6 km/h (4 Bft)
29.01.2013 02:22 8,3 C 6,8 C 89 % 0 lf 1006,6 hPa 0,0 l/m 0 min 0,0 UV-I 0 W/m 18,0 km/h (3 Bft)
29.01.2013 02:24 8,3 C 6,8 C 89 % 0 lf 1006,5 hPa 0,0 l/m 0 min 0,0 UV-I 0 W/m 36,0 km/h (5 Bft)
29.01.2013 02:26 8,3 C 6,8 C 89 % 0 lf 1006,6 hPa 0,0 l/m 0 min 0,0 UV-I 0 W/m 23,2 km/h (4 Bft)
29.01.2013 02:28 8,3 C 6,8 C 89 % 0 lf 1006,7 hPa 0,0 l/m 0 min 0,0 UV-I 0 W/m 20,6 km/h (4 Bft)
29.01.2013 02:30 8,3 C 6,8 C 89 % 2 lf 1006,7 hPa 0,0 l/m 0 min 0,0 UV-I 0 W/m 25,7 km/h (4 Bft)
29.01.2013 02:32 8,3 C 6,8 C 89 % 15 lf 1006,7 hPa 0,0 l/m 0 min 0,0 UV-I 0 W/m 30,9 km/h (5 Bft)
29.01.2013 02:34 8,3 C 6,2 C 90 % 15 lf 1006,7 hPa 0,0 l/m 0 min 0,0 UV-I 0 W/m 48,9 km/h (6 Bft)
29.01.2013 02:36 8,3 C 6,2 C 91 % 15 lf 1006,7 hPa 0,0 l/m 0 min 0,0 UV-I 0 W/m 33,5 km/h (5 Bft)
29.01.2013 02:38 8,2 C 6,2 C 91 % 15 lf 1007,1 hPa 0,0 l/m 0 min 0,0 UV-I 0 W/m 28,3 km/h (4 Bft)
29.01.2013 02:40 8,2 C 6,2 C 92 % 15 lf 1006,7 hPa 0,0 l/m 0 min 0,0 UV-I 0 W/m 54,1 km/h (7 Bft)
29.01.2013 02:42 8,2 C 6,2 C 92 % 15 lf 1006,7 hPa 0,0 l/m 0 min 0,0 UV-I 0 W/m 20,6 km/h (4 Bft)
29.01.2013 02:44 8,1 C 6,2 C 92 % 15 lf 1006,7 hPa 0,0 l/m 0 min 0,0 UV-I 0 W/m 36,0 km/h (5 Bft)
29.01.2013 02:46 8,1 C 6,2 C 93 % 15 lf 1006,7 hPa 0,0 l/m 0 min 0,0 UV-I 0 W/m 20,6 km/h (4 Bft)
29.01.2013 02:48 8,0 C 6,2 C 93 % 15 lf 1006,7 hPa 0,0 l/m 0 min 0,0 UV-I 0 W/m 23,2 km/h (4 Bft)
29.01.2013 02:50 7,9 C 6,2 C 93 % 15 lf 1006,7 hPa 0,0 l/m 0 min 0,0 UV-I 0 W/m 33,5 km/h (5 Bft)
29.01.2013 02:52 7,9 C 6,2 C 94 % 15 lf 1006,6 hPa 0,0 l/m 0 min 0,0 UV-I 0 W/m 25,7 km/h (4 Bft)
29.01.2013 02:54 7,8 C 6,2 C 94 % 15 lf 1006,6 hPa 0,0 l/m 0 min 0,0 UV-I 0 W/m 25,7 km/h (4 Bft)
29.01.2013 02:56 7,8 C 6,2 C 94 % 15 lf 1006,7 hPa 0,0 l/m 0 min 0,0 UV-I 0 W/m 41,2 km/h (6 Bft)
29.01.2013 02:58 7,8 C 6,2 C 94 % 15 lf 1006,6 hPa 0,0 l/m 0 min 0,0 UV-I 0 W/m 25,7 km/h (4 Bft)
29.01.2013 03:00 7,8 C 6,2 C 95 % 15 lf 1006,5 hPa 0,0 l/m 0 min 0,0 UV-I 0 W/m 30,9 km/h (5 Bft)
29.01.2013 03:02 7,8 C 6,2 C 95 % 15 lf 1006,5 hPa 0,0 l/m 0 min 0,0 UV-I 0 W/m 23,2 km/h (4 Bft)
29.01.2013 03:04 7,8 C 6,2 C 95 % 15 lf 1006,5 hPa 0,0 l/m 0 min 0,0 UV-I 0 W/m 28,3 km/h (4 Bft)
29.01.2013 03:06 7,9 C 6,2 C 95 % 15 lf 1006,6 hPa 0,0 l/m 0 min 0,0 UV-I 0 W/m 41,2 km/h (6 Bft)
29.01.2013 03:08 7,9 C 6,2 C 95 % 15 lf 1006,3 hPa 0,0 l/m 0 min 0,0 UV-I 0 W/m 36,0 km/h (5 Bft)
29.01.2013 03:10 7,9 C 6,2 C 95 % 15 lf 1006,3 hPa 0,0 l/m 0 min 0,0 UV-I 0 W/m 25,7 km/h (4 Bft)
29.01.2013 03:12 7,9 C 6,2 C 95 % 15 lf 1006,3 hPa 0,0 l/m 0 min 0,0 UV-I 0 W/m 25,7 km/h (4 Bft)
29.01.2013 03:14 7,9 C 6,2 C 96 % 15 lf 1006,3 hPa 0,0 l/m 0 min 0,0 UV-I 0 W/m 25,7 km/h (4 Bft)
29.01.2013 03:16 7,9 C 6,2 C 96 % 15 lf 1006,5 hPa 0,0 l/m 0 min 0,0 UV-I 0 W/m 20,6 km/h (4 Bft)
29.01.2013 03:18 7,9 C 6,2 C 96 % 15 lf 1006,4 hPa 0,0 l/m 0 min 0,0 UV-I 0 W/m 20,6 km/h (4 Bft)
29.01.2013 03:20 7,9 C 6,2 C 96 % 15 lf 1006,3 hPa 0,0 l/m 0 min 0,0 UV-I 0 W/m 23,2 km/h (4 Bft)
29.01.2013 03:22 7,9 C 6,2 C 96 % 15 lf 1006,2 hPa 0,0 l/m 0 min 0,0 UV-I 0 W/m 18,0 km/h (3 Bft)
29.01.2013 03:24 7,9 C 6,2 C 96 % 15 lf 1006,0 hPa 0,0 l/m 0 min 0,0 UV-I 0 W/m 20,6 km/h (4 Bft)
29.01.2013 03:26 7,9 C 6,2 C 96 % 15 lf 1006,4 hPa 0,0 l/m 0 min 0,0 UV-I 0 W/m 30,9 km/h (5 Bft)
29.01.2013 03:28 7,9 C 6,2 C 96 % 15 lf 1006,5 hPa 0,0 l/m 0 min 0,0 UV-I 0 W/m 38,6 km/h (5 Bft)
29.01.2013 03:30 8,0 C 6,2 C 96 % 15 lf 1006,3 hPa 0,0 l/m 0 min 0,0 UV-I 0 W/m 41,2 km/h (6 Bft)
29.01.2013 03:32 8,1 C 6,2 C 96 % 15 lf 1006,3 hPa 0,0 l/m 0 min 0,0 UV-I 0 W/m 41,2 km/h (6 Bft)
29.01.2013 03:34 8,1 C 6,8 C 96 % 15 lf 1006,2 hPa 0,2 l/m 0 min 0,0 UV-I 0 W/m 48,9 km/h (6 Bft)
29.01.2013 03:36 8,2 C 6,8 C 96 % 15 lf 1006,4 hPa 0,0 l/m 0 min 0,0 UV-I 0 W/m 25,7 km/h (4 Bft)
29.01.2013 03:38 8,2 C 6,8 C 96 % 15 lf 1006,4 hPa 0,0 l/m 0 min 0,0 UV-I 0 W/m 30,9 km/h (5 Bft)
29.01.2013 03:40 8,2 C 6,8 C 96 % 15 lf 1006,2 hPa 0,0 l/m 0 min 0,0 UV-I 0 W/m 25,7 km/h (4 Bft)
29.01.2013 03:42 8,2 C 6,8 C 95 % 15 lf 1006,5 hPa 0,0 l/m 0 min 0,0 UV-I 0 W/m 36,0 km/h (5 Bft)
29.01.2013 03:44 8,3 C 6,8 C 96 % 15 lf 1006,4 hPa 0,0 l/m 0 min 0,0 UV-I 0 W/m 20,6 km/h (4 Bft)
29.01.2013 03:46 8,3 C 6,8 C 96 % 15 lf 1006,4 hPa 0,0 l/m 0 min 0,0 UV-I 0 W/m 28,3 km/h (4 Bft)
29.01.2013 03:48 8,3 C 6,8 C 96 % 15 lf 1006,5 hPa 0,0 l/m 0 min 0,0 UV-I 0 W/m 46,3 km/h (6 Bft)
29.01.2013 03:50 8,3 C 6,8 C 95 % 15 lf 1006,5 hPa 0,0 l/m 0 min 0,0 UV-I 0 W/m 30,9 km/h (5 Bft)
29.01.2013 03:52 8,4 C 6,8 C 95 % 15 lf 1006,3 hPa 0,0 l/m 0 min 0,0 UV-I 0 W/m 36,0 km/h (5 Bft)
29.01.2013 03:54 8,4 C 7,3 C 95 % 15 lf 1006,3 hPa 0,0 l/m 0 min 0,0 UV-I 0 W/m 28,3 km/h (4 Bft)
29.01.2013 03:56 8,4 C 7,3 C 95 % 15 lf 1006,2 hPa 0,0 l/m 0 min 0,0 UV-I 0 W/m 25,7 km/h (4 Bft)
29.01.2013 03:58 8,5 C 7,3 C 95 % 15 lf 1006,3 hPa 0,0 l/m 0 min 0,0 UV-I 0 W/m 56,6 km/h (7 Bft)
29.01.2013 04:00 8,5 C 7,3 C 95 % 14 lf 1006,1 hPa 0,0 l/m 0 min 0,0 UV-I 0 W/m 23,2 km/h (4 Bft)
29.01.2013 04:02 8,6 C 7,3 C 95 % 14 lf 1006,1 hPa 0,0 l/m 0 min 0,0 UV-I 0 W/m 20,6 km/h (4 Bft)
29.01.2013 04:04 8,6 C 7,3 C 94 % 12 lf 1006,3 hPa 0,0 l/m 0 min 0,0 UV-I 0 W/m 33,5 km/h (5 Bft)
29.01.2013 04:06 8,6 C 7,3 C 94 % 10 lf 1006,0 hPa 0,0 l/m 0 min 0,0 UV-I 0 W/m 30,9 km/h (5 Bft)
29.01.2013 04:08 8,6 C 7,3 C 94 % 4 lf 1006,2 hPa 0,0 l/m 0 min 0,0 UV-I 0 W/m 33,5 km/h (5 Bft)
29.01.2013 04:10 8,6 C 7,3 C 94 % 0 lf 1006,3 hPa 0,0 l/m 0 min 0,0 UV-I 0 W/m 36,0 km/h (5 Bft)
29.01.2013 04:12 8,7 C 7,3 C 94 % 0 lf 1006,3 hPa 0,0 l/m 0 min 0,0 UV-I 0 W/m 33,5 km/h (5 Bft)
29.01.2013 04:14 8,7 C 7,3 C 94 % 0 lf 1006,4 hPa 0,0 l/m 0 min 0,0 UV-I 0 W/m 23,2 km/h (4 Bft)
29.01.2013 04:16 8,7 C 7,3 C 94 % 0 lf 1005,9 hPa 0,0 l/m 0 min 0,0 UV-I 0 W/m 25,7 km/h (4 Bft)
29.01.2013 04:18 8,7 C 7,3 C 94 % 0 lf 1005,9 hPa 0,0 l/m 0 min 0,0 UV-I 0 W/m 15,4 km/h (3 Bft)
29.01.2013 04:20 8,7 C 7,3 C 94 % 0 lf 1006,0 hPa 0,0 l/m 0 min 0,0 UV-I 0 W/m 30,9 km/h (5 Bft)
29.01.2013 04:22 8,7 C 7,3 C 93 % 0 lf 1006,2 hPa 0,0 l/m 0 min 0,0 UV-I 0 W/m 23,2 km/h (4 Bft)
29.01.2013 04:24 8,8 C 7,3 C 93 % 0 lf 1006,1 hPa 0,0 l/m 0 min 0,0 UV-I 0 W/m 28,3 km/h (4 Bft)
29.01.2013 04:26 8,8 C 7,3 C 93 % 2 lf 1006,0 hPa 0,0 l/m 0 min 0,0 UV-I 0 W/m 23,2 km/h (4 Bft)
29.01.2013 04:28 8,8 C 7,9 C 93 % 0 lf 1006,2 hPa 0,0 l/m 0 min 0,0 UV-I 0 W/m 48,9 km/h (6 Bft)
29.01.2013 04:30 8,9 C 7,9 C 93 % 0 lf 1006,0 hPa 0,0 l/m 0 min 0,0 UV-I 0 W/m 25,7 km/h (4 Bft)
29.01.2013 04:32 8,9 C 7,9 C 92 % 0 lf 1006,0 hPa 0,0 l/m 0 min 0,0 UV-I 0 W/m 25,7 km/h (4 Bft)
29.01.2013 04:34 8,9 C 7,9 C 92 % 0 lf 1005,9 hPa 0,0 l/m 0 min 0,0 UV-I 0 W/m 33,5 km/h (5 Bft)
29.01.2013 04:36 9,0 C 7,9 C 96 % 0 lf 1005,9 hPa 0,0 l/m 0 min 0,0 UV-I 0 W/m 28,3 km/h (4 Bft)
29.01.2013 04:38 9,1 C 7,9 C 92 % 0 lf 1006,1 hPa 0,0 l/m 0 min 0,0 UV-I 0 W/m 30,9 km/h (5 Bft)
29.01.2013 04:40 9,1 C 7,9 C 92 % 0 lf 1006,1 hPa 0,0 l/m 0 min 0,0 UV-I 0 W/m 18,0 km/h (3 Bft)
29.01.2013 04:42 9,1 C 7,9 C 92 % 0 lf 1005,9 hPa 0,0 l/m 0 min 0,0 UV-I 0 W/m 30,9 km/h (5 Bft)
29.01.2013 04:44 9,1 C 7,9 C 92 % 0 lf 1006,2 hPa 0,0 l/m 0 min 0,0 UV-I 0 W/m 38,6 km/h (5 Bft)
29.01.2013 04:46 9,2 C 7,9 C 92 % 1 lf 1006,2 hPa 0,0 l/m 0 min 0,0 UV-I 0 W/m 38,6 km/h (5 Bft)
29.01.2013 04:48 9,2 C 7,9 C 92 % 0 lf 1006,2 hPa 0,0 l/m 0 min 0,0 UV-I 0 W/m 25,7 km/h (4 Bft)
29.01.2013 04:50 9,2 C 7,9 C 92 % 0 lf 1006,2 hPa 0,0 l/m 0 min 0,0 UV-I 0 W/m 28,3 km/h (4 Bft)
29.01.2013 04:52 9,2 C 7,9 C 92 % 1 lf 1006,7 hPa 0,0 l/m 0 min 0,0 UV-I 0 W/m 38,6 km/h (5 Bft)
29.01.2013 04:54 9,2 C 7,9 C 92 % 0 lf 1006,1 hPa 0,0 l/m 0 min 0,0 UV-I 0 W/m 30,9 km/h (5 Bft)
29.01.2013 04:56 9,3 C 7,9 C 92 % 0 lf 1006,0 hPa 0,0 l/m 0 min 0,0 UV-I 0 W/m 36,0 km/h (5 Bft)
29.01.2013 04:58 9,3 C 7,9 C 91 % 0 lf 1006,0 hPa 0,0 l/m 0 min 0,0 UV-I 0 W/m 15,4 km/h (3 Bft)
29.01.2013 05:00 9,3 C 7,9 C 91 % 0 lf 1005,8 hPa 0,0 l/m 0 min 0,0 UV-I 0 W/m 54,1 km/h (7 Bft)
29.01.2013 05:02 9,3 C 7,9 C 91 % 0 lf 1005,7 hPa 0,0 l/m 0 min 0,0 UV-I 0 W/m 25,7 km/h (4 Bft)
29.01.2013 05:04 9,3 C 7,9 C 91 % 0 lf 1005,7 hPa 0,0 l/m 0 min 0,0 UV-I 0 W/m 23,2 km/h (4 Bft)
29.01.2013 05:06 9,3 C 7,9 C 91 % 0 lf 1005,9 hPa 0,0 l/m 0 min 0,0 UV-I 0 W/m 28,3 km/h (4 Bft)
29.01.2013 05:08 9,3 C 7,9 C 91 % 0 lf 1006,4 hPa 0,0 l/m 0 min 0,0 UV-I 0 W/m 43,8 km/h (6 Bft)
29.01.2013 05:10 9,3 C 7,9 C 91 % 0 lf 1006,2 hPa 0,0 l/m 0 min 0,0 UV-I 0 W/m 33,5 km/h (5 Bft)
29.01.2013 05:12 9,3 C 7,9 C 91 % 0 lf 1005,7 hPa 0,0 l/m 0 min 0,0 UV-I 0 W/m 38,6 km/h (5 Bft)
29.01.2013 05:14 9,3 C 7,9 C 91 % 0 lf 1006,0 hPa 0,0 l/m 0 min 0,0 UV-I 0 W/m 28,3 km/h (4 Bft)
29.01.2013 05:16 9,3 C 7,9 C 91 % 0 lf 1005,9 hPa 0,0 l/m 0 min 0,0 UV-I 0 W/m 20,6 km/h (4 Bft)
29.01.2013 05:18 9,3 C 7,9 C 91 % 0 lf 1006,0 hPa 0,0 l/m 0 min 0,0 UV-I 0 W/m 25,7 km/h (4 Bft)
29.01.2013 05:20 9,3 C 7,9 C 91 % 0 lf 1006,1 hPa 0,0 l/m 0 min 0,0 UV-I 0 W/m 30,9 km/h (5 Bft)
29.01.2013 05:22 9,4 C 7,9 C 91 % 0 lf 1006,3 hPa 0,0 l/m 0 min 0,0 UV-I 0 W/m 30,9 km/h (5 Bft)
29.01.2013 05:24 9,4 C 7,9 C 91 % 0 lf 1006,0 hPa 0,0 l/m 0 min 0,0 UV-I 0 W/m 28,3 km/h (4 Bft)
29.01.2013 05:26 9,4 C 7,9 C 91 % 0 lf 1005,8 hPa 0,0 l/m 0 min 0,0 UV-I 0 W/m 28,3 km/h (4 Bft)
29.01.2013 05:28 9,4 C 7,9 C 91 % 0 lf 1005,8 hPa 0,0 l/m 0 min 0,0 UV-I 0 W/m 56,6 km/h (7 Bft)
29.01.2013 05:30 9,4 C 7,9 C 91 % 0 lf 1005,9 hPa 0,0 l/m 0 min 0,0 UV-I 0 W/m 30,9 km/h (5 Bft)
29.01.2013 05:32 9,5 C 7,9 C 91 % 0 lf 1005,8 hPa 0,0 l/m 0 min 0,0 UV-I 0 W/m 48,9 km/h (6 Bft)
29.01.2013 05:34 9,5 C 7,9 C 91 % 0 lf 1005,8 hPa 0,0 l/m 0 min 0,0 UV-I 0 W/m 20,6 km/h (4 Bft)
29.01.2013 05:36 9,4 C 7,9 C 91 % 0 lf 1005,8 hPa 0,0 l/m 0 min 0,0 UV-I 0 W/m 48,9 km/h (6 Bft)
29.01.2013 05:38 9,4 C 7,9 C 91 % 0 lf 1005,9 hPa 0,0 l/m 0 min 0,0 UV-I 0 W/m 43,8 km/h (6 Bft)
29.01.2013 05:40 9,4 C 7,9 C 91 % 0 lf 1006,1 hPa 0,0 l/m 0 min 0,0 UV-I 0 W/m 36,0 km/h (5 Bft)
29.01.2013 05:42 9,4 C 7,9 C 92 % 0 lf 1006,0 hPa 0,0 l/m 0 min 0,0 UV-I 0 W/m 54,1 km/h (7 Bft)
29.01.2013 05:44 9,4 C 7,9 C 92 % 0 lf 1006,1 hPa 0,0 l/m 0 min 0,0 UV-I 0 W/m 30,9 km/h (5 Bft)
29.01.2013 05:46 9,3 C 7,9 C 92 % 0 lf 1006,0 hPa 0,0 l/m 0 min 0,0 UV-I 0 W/m 30,9 km/h (5 Bft)
29.01.2013 05:48 9,3 C 7,9 C 92 % 0 lf 1006,2 hPa 0,0 l/m 0 min 0,0 UV-I 0 W/m 41,2 km/h (6 Bft)
29.01.2013 05:50 9,3 C 7,9 C 92 % 1 lf 1006,3 hPa 0,0 l/m 0 min 0,0 UV-I 0 W/m 46,3 km/h (6 Bft)
29.01.2013 05:52 9,3 C 7,9 C 92 % 1 lf 1006,3 hPa 0,0 l/m 0 min 0,0 UV-I 0 W/m 43,8 km/h (6 Bft)
29.01.2013 05:54 9,3 C 7,9 C 92 % 8 lf 1006,5 hPa 0,0 l/m 0 min 0,0 UV-I 0 W/m 20,6 km/h (4 Bft)
29.01.2013 05:56 9,3 C 7,3 C 92 % 14 lf 1006,4 hPa 0,0 l/m 0 min 0,0 UV-I 0 W/m 54,1 km/h (7 Bft)
29.01.2013 05:58 9,3 C 7,3 C 93 % 15 lf 1006,7 hPa 0,0 l/m 0 min 0,0 UV-I 0 W/m 25,7 km/h (4 Bft)
29.01.2013 06:00 9,3 C 7,3 C 93 % 15 lf 1006,5 hPa 0,0 l/m 0 min 0,0 UV-I 0 W/m 23,2 km/h (4 Bft)
29.01.2013 06:02 9,2 C 7,3 C 93 % 15 lf 1006,8 hPa 0,0 l/m 0 min 0,0 UV-I 0 W/m 30,9 km/h (5 Bft)
29.01.2013 06:04 9,2 C 6,8 C 93 % 15 lf 1006,6 hPa 0,0 l/m 0 min 0,0 UV-I 0 W/m 33,5 km/h (5 Bft)
29.01.2013 06:06 9,2 C 6,8 C 93 % 15 lf 1006,6 hPa 0,0 l/m 0 min 0,0 UV-I 0 W/m 20,6 km/h (4 Bft)
29.01.2013 06:08 9,2 C 6,8 C 94 % 15 lf 1006,8 hPa 0,0 l/m 0 min 0,0 UV-I 0 W/m 23,2 km/h (4 Bft)
29.01.2013 06:10 9,1 C 6,8 C 94 % 15 lf 1006,8 hPa 0,0 l/m 0 min 0,0 UV-I 0 W/m 30,9 km/h (5 Bft)
29.01.2013 06:12 9,1 C 6,8 C 94 % 15 lf 1006,8 hPa 0,0 l/m 0 min 0,0 UV-I 0 W/m 12,9 km/h (3 Bft)
29.01.2013 06:14 9,0 C 6,8 C 94 % 15 lf 1006,9 hPa 0,0 l/m 0 min 0,0 UV-I 0 W/m 18,0 km/h (3 Bft)
29.01.2013 06:16 9,0 C 6,8 C 94 % 15 lf 1006,9 hPa 0,0 l/m 0 min 0,0 UV-I 0 W/m 18,0 km/h (3 Bft)
29.01.2013 06:18 8,9 C 6,8 C 94 % 15 lf 1007,1 hPa 0,2 l/m 0 min 0,0 UV-I 0 W/m 38,6 km/h (5 Bft)
29.01.2013 06:20 8,9 C 6,8 C 95 % 15 lf 1007,1 hPa 0,0 l/m 0 min 0,0 UV-I 0 W/m 12,9 km/h (3 Bft)
29.01.2013 06:22 8,9 C 6,8 C 95 % 15 lf 1007,0 hPa 0,0 l/m 0 min 0,0 UV-I 0 W/m 15,4 km/h (3 Bft)
29.01.2013 06:24 8,9 C 6,8 C 95 % 15 lf 1007,0 hPa 0,0 l/m 0 min 0,0 UV-I 0 W/m 23,2 km/h (4 Bft)
29.01.2013 06:26 8,9 C 6,8 C 95 % 15 lf 1007,0 hPa 0,0 l/m 0 min 0,0 UV-I 0 W/m 18,0 km/h (3 Bft)
29.01.2013 06:28 8,8 C 6,8 C 95 % 15 lf 1006,8 hPa 0,0 l/m 0 min 0,0 UV-I 0 W/m 20,6 km/h (4 Bft)
29.01.2013 06:30 8,8 C 6,8 C 95 % 15 lf 1006,9 hPa 0,0 l/m 0 min 0,0 UV-I 0 W/m 25,7 km/h (4 Bft)
29.01.2013 06:32 8,8 C 6,8 C 95 % 15 lf 1006,8 hPa 0,0 l/m 0 min 0,0 UV-I 0 W/m 15,4 km/h (3 Bft)
29.01.2013 06:34 8,8 C 6,8 C 96 % 15 lf 1006,6 hPa 0,0 l/m 0 min 0,0 UV-I 0 W/m 18,0 km/h (3 Bft)
29.01.2013 06:36 8,8 C 6,8 C 96 % 15 lf 1006,6 hPa 0,0 l/m 0 min 0,0 UV-I 0 W/m 12,9 km/h (3 Bft)
29.01.2013 06:38 8,7 C 6,8 C 96 % 15 lf 1006,7 hPa 0,2 l/m 0 min 0,0 UV-I 0 W/m 18,0 km/h (3 Bft)
29.01.2013 06:40 8,7 C 6,8 C 96 % 15 lf 1006,7 hPa 0,0 l/m 0 min 0,0 UV-I 0 W/m 15,4 km/h (3 Bft)
29.01.2013 06:42 8,7 C 6,8 C 96 % 15 lf 1006,8 hPa 0,0 l/m 0 min 0,0 UV-I 0 W/m 23,2 km/h (4 Bft)
29.01.2013 06:44 8,7 C 6,8 C 96 % 15 lf 1006,8 hPa 0,0 l/m 0 min 0,0 UV-I 0 W/m 28,3 km/h (4 Bft)
29.01.2013 06:46 8,7 C 6,8 C 96 % 15 lf 1006,6 hPa 0,0 l/m 0 min 0,0 UV-I 0 W/m 20,6 km/h (4 Bft)
29.01.2013 06:48 8,7 C 6,8 C 96 % 15 lf 1006,6 hPa 0,0 l/m 0 min 0,0 UV-I 0 W/m 18,0 km/h (3 Bft)
29.01.2013 06:50 8,7 C 6,8 C 96 % 15 lf 1006,7 hPa 0,0 l/m 0 min 0,0 UV-I 0 W/m 15,4 km/h (3 Bft)
29.01.2013 06:52 8,7 C 6,8 C 96 % 15 lf 1006,6 hPa 0,0 l/m 0 min 0,0 UV-I 0 W/m 18,0 km/h (3 Bft)
29.01.2013 06:54 8,7 C 6,8 C 96 % 15 lf 1006,5 hPa 0,0 l/m 0 min 0,0 UV-I 0 W/m 12,9 km/h (3 Bft)
29.01.2013 06:56 8,6 C 6,8 C 96 % 15 lf 1006,5 hPa 0,0 l/m 0 min 0,0 UV-I 0 W/m 18,0 km/h (3 Bft)
29.01.2013 06:58 8,6 C 6,8 C 97 % 15 lf 1006,5 hPa 0,0 l/m 0 min 0,0 UV-I 0 W/m 18,0 km/h (3 Bft)
29.01.2013 07:00 8,6 C 6,8 C 97 % 15 lf 1006,5 hPa 0,0 l/m 0 min 0,0 UV-I 0 W/m 33,5 km/h (5 Bft)
29.01.2013 07:02 8,6 C 6,8 C 97 % 15 lf 1006,7 hPa 0,0 l/m 0 min 0,0 UV-I 0 W/m 20,6 km/h (4 Bft)
29.01.2013 07:04 8,6 C 6,8 C 97 % 15 lf 1006,5 hPa 0,0 l/m 0 min 0,0 UV-I 0 W/m 18,0 km/h (3 Bft)
29.01.2013 07:06 8,6 C 6,8 C 97 % 15 lf 1006,4 hPa 0,0 l/m 0 min 0,0 UV-I 0 W/m 18,0 km/h (3 Bft)
29.01.2013 07:08 8,6 C 6,8 C 97 % 15 lf 1006,4 hPa 0,0 l/m 0 min 0,0 UV-I 0 W/m 25,7 km/h (4 Bft)
29.01.2013 07:10 8,6 C 6,8 C 97 % 15 lf 1006,2 hPa 0,0 l/m 0 min 0,0 UV-I 0 W/m 25,7 km/h (4 Bft)
29.01.2013 07:12 8,6 C 6,8 C 97 % 15 lf 1006,1 hPa 0,0 l/m 0 min 0,0 UV-I 0 W/m 10,3 km/h (2 Bft)
29.01.2013 07:14 8,6 C 6,8 C 97 % 15 lf 1006,2 hPa 0,0 l/m 0 min 0,0 UV-I 0 W/m 20,6 km/h (4 Bft)
29.01.2013 07:16 8,6 C 6,8 C 97 % 15 lf 1006,4 hPa 0,0 l/m 0 min 0,0 UV-I 0 W/m 23,2 km/h (4 Bft)
29.01.2013 07:18 8,6 C 6,8 C 97 % 15 lf 1006,4 hPa 0,0 l/m 0 min 0,0 UV-I 0 W/m 30,9 km/h (5 Bft)
29.01.2013 07:20 8,6 C 6,8 C 97 % 15 lf 1006,5 hPa 0,0 l/m 0 min 0,0 UV-I 0 W/m 25,7 km/h (4 Bft)
29.01.2013 07:22 8,6 C 6,8 C 97 % 15 lf 1006,5 hPa 0,0 l/m 0 min 0,0 UV-I 0 W/m 36,0 km/h (5 Bft)
29.01.2013 07:24 8,6 C 6,8 C 97 % 15 lf 1006,6 hPa 0,0 l/m 0 min 0,0 UV-I 0 W/m 20,6 km/h (4 Bft)
29.01.2013 07:26 8,6 C 6,8 C 97 % 15 lf 1006,5 hPa 0,0 l/m 0 min 0,0 UV-I 0 W/m 23,2 km/h (4 Bft)
29.01.2013 07:28 8,6 C 6,8 C 97 % 15 lf 1006,7 hPa 0,0 l/m 0 min 0,0 UV-I 0 W/m 20,6 km/h (4 Bft)
29.01.2013 07:30 8,6 C 6,8 C 97 % 15 lf 1006,7 hPa 0,0 l/m 0 min 0,0 UV-I 0 W/m 10,3 km/h (2 Bft)
29.01.2013 07:32 8,6 C 6,8 C 97 % 15 lf 1006,7 hPa 0,2 l/m 0 min 0,0 UV-I 0 W/m 20,6 km/h (4 Bft)
29.01.2013 07:34 8,6 C 6,8 C 97 % 14 lf 1006,7 hPa 0,0 l/m 0 min 0,0 UV-I 0 W/m 23,2 km/h (4 Bft)
29.01.2013 07:36 8,6 C 6,8 C 97 % 13 lf 1006,8 hPa 0,0 l/m 0 min 0,0 UV-I 0 W/m 15,4 km/h (3 Bft)
29.01.2013 07:38 8,6 C 6,8 C 97 % 13 lf 1006,7 hPa 0,2 l/m 0 min 0,0 UV-I 0 W/m 18,0 km/h (3 Bft)
29.01.2013 07:40 8,6 C 6,8 C 97 % 13 lf 1006,9 hPa 0,2 l/m 0 min 0,0 UV-I 0 W/m 7,7 km/h (2 Bft)
29.01.2013 07:42 8,6 C 6,8 C 97 % 13 lf 1006,9 hPa 0,0 l/m 0 min 0,0 UV-I 0 W/m 18,0 km/h (3 Bft)
29.01.2013 07:44 8,6 C 6,8 C 97 % 13 lf 1006,9 hPa 0,0 l/m 0 min 0,0 UV-I 0 W/m 12,9 km/h (3 Bft)
29.01.2013 07:46 8,6 C 6,8 C 97 % 13 lf 1006,9 hPa 0,2 l/m 0 min 0,0 UV-I 0 W/m 20,6 km/h (4 Bft)
29.01.2013 07:48 8,6 C 6,8 C 97 % 12 lf 1006,9 hPa 0,0 l/m 0 min 0,0 UV-I 0 W/m 12,9 km/h (3 Bft)
29.01.2013 07:50 8,6 C 6,8 C 97 % 12 lf 1007,0 hPa 0,0 l/m 0 min 0,0 UV-I 0 W/m 18,0 km/h (3 Bft)
29.01.2013 07:52 8,6 C 6,8 C 97 % 12 lf 1007,0 hPa 0,2 l/m 0 min 0,0 UV-I 0 W/m 12,9 km/h (3 Bft)
29.01.2013 07:54 8,6 C 6,8 C 97 % 12 lf 1007,2 hPa 0,0 l/m 0 min 0,0 UV-I 0 W/m 15,4 km/h (3 Bft)
29.01.2013 07:56 8,6 C 6,8 C 97 % 12 lf 1007,2 hPa 0,2 l/m 0 min 0,0 UV-I 0 W/m 10,3 km/h (2 Bft)
29.01.2013 07:58 8,6 C 6,8 C 98 % 12 lf 1007,0 hPa 0,0 l/m 0 min 0,0 UV-I 0 W/m 20,6 km/h (4 Bft)
29.01.2013 08:00 8,6 C 6,8 C 98 % 11 lf 1007,0 hPa 0,2 l/m 0 min 0,0 UV-I 0 W/m 18,0 km/h (3 Bft)
29.01.2013 08:02 8,6 C 6,8 C 98 % 12 lf 1007,0 hPa 0,0 l/m 0 min 0,0 UV-I 0 W/m 10,3 km/h (2 Bft)
29.01.2013 08:04 8,6 C 6,8 C 98 % 12 lf 1007,1 hPa 0,0 l/m 0 min 0,0 UV-I 0 W/m 15,4 km/h (3 Bft)
29.01.2013 08:06 8,6 C 6,8 C 98 % 13 lf 1007,1 hPa 0,2 l/m 0 min 0,0 UV-I 0 W/m 7,7 km/h (2 Bft)
29.01.2013 08:08 8,6 C 6,8 C 98 % 12 lf 1007,0 hPa 0,0 l/m 0 min 0,0 UV-I 0 W/m 15,4 km/h (3 Bft)
29.01.2013 08:10 8,6 C 6,8 C 98 % 12 lf 1006,9 hPa 0,0 l/m 0 min 0,0 UV-I 0 W/m 5,1 km/h (1 Bft)
29.01.2013 08:12 8,6 C 6,8 C 98 % 12 lf 1006,8 hPa 0,2 l/m 0 min 0,0 UV-I 0 W/m 7,7 km/h (2 Bft)
29.01.2013 08:14 8,6 C 6,8 C 98 % 12 lf 1007,0 hPa 0,0 l/m 0 min 0,0 UV-I 0 W/m 5,1 km/h (1 Bft)
29.01.2013 08:16 8,6 C 6,8 C 98 % 12 lf 1007,0 hPa 0,0 l/m 0 min 0,0 UV-I 0 W/m 18,0 km/h (3 Bft)
29.01.2013 08:18 8,6 C 6,8 C 98 % 12 lf 1006,9 hPa 0,2 l/m 0 min 0,0 UV-I 0 W/m 15,4 km/h (3 Bft)
29.01.2013 08:20 8,6 C 6,8 C 98 % 12 lf 1006,8 hPa 0,0 l/m 0 min 0,0 UV-I 0 W/m 10,3 km/h (2 Bft)
29.01.2013 08:22 8,6 C 6,8 C 98 % 12 lf 1006,9 hPa 0,0 l/m 0 min 0,0 UV-I 0 W/m 7,7 km/h (2 Bft)
29.01.2013 08:24 8,6 C 6,8 C 98 % 12 lf 1006,8 hPa 0,2 l/m 0 min 0,0 UV-I 0 W/m 0,0 km/h (0 Bft)
29.01.2013 08:26 8,6 C 6,8 C 98 % 12 lf 1006,7 hPa 0,0 l/m 0 min 0,0 UV-I 0 W/m 7,7 km/h (2 Bft)
29.01.2013 08:28 8,6 C 6,8 C 98 % 12 lf 1006,7 hPa 0,0 l/m 0 min 0,0 UV-I 0 W/m 0,0 km/h (0 Bft)
29.01.2013 08:30 8,6 C 6,8 C 98 % 12 lf 1006,8 hPa 0,0 l/m 0 min 0,0 UV-I 0 W/m 15,4 km/h (3 Bft)
29.01.2013 08:32 8,6 C 6,8 C 98 % 13 lf 1006,7 hPa 0,0 l/m 0 min 0,0 UV-I 0 W/m 7,7 km/h (2 Bft)
29.01.2013 08:34 8,6 C 6,8 C 98 % 13 lf 1006,8 hPa 0,2 l/m 0 min 0,0 UV-I 0 W/m 10,3 km/h (2 Bft)
29.01.2013 08:36 8,6 C 6,8 C 98 % 13 lf 1006,9 hPa 0,0 l/m 0 min 0,0 UV-I 0 W/m 12,9 km/h (3 Bft)
29.01.2013 08:38 8,6 C 6,8 C 99 % 13 lf 1006,9 hPa 0,0 l/m 0 min 0,0 UV-I 0 W/m 7,7 km/h (2 Bft)
29.01.2013 08:40 8,6 C 7,3 C 99 % 14 lf 1006,9 hPa 0,0 l/m 0 min 0,0 UV-I 0 W/m 5,1 km/h (1 Bft)
29.01.2013 08:42 8,6 C 7,3 C 99 % 14 lf 1006,8 hPa 0,0 l/m 0 min 0,0 UV-I 5 W/m 10,3 km/h (2 Bft)
29.01.2013 08:44 8,6 C 7,3 C 99 % 14 lf 1006,8 hPa 0,0 l/m 0 min 0,0 UV-I 9 W/m 10,3 km/h (2 Bft)
29.01.2013 08:46 8,6 C 7,3 C 99 % 14 lf 1006,9 hPa 0,0 l/m 0 min 0,0 UV-I 12 W/m 10,3 km/h (2 Bft)
29.01.2013 08:48 8,6 C 7,3 C 99 % 14 lf 1006,9 hPa 0,0 l/m 0 min 0,0 UV-I 11 W/m 10,3 km/h (2 Bft)
29.01.2013 08:50 8,7 C 7,3 C 99 % 13 lf 1006,9 hPa 0,2 l/m 0 min 0,0 UV-I 12 W/m 12,9 km/h (3 Bft)
29.01.2013 08:52 8,7 C 7,3 C 99 % 13 lf 1006,9 hPa 0,0 l/m 0 min 0,0 UV-I 14 W/m 15,4 km/h (3 Bft)
29.01.2013 08:54 8,7 C 7,3 C 99 % 13 lf 1006,8 hPa 0,0 l/m 0 min 0,0 UV-I 16 W/m 12,9 km/h (3 Bft)
29.01.2013 08:56 8,7 C 7,3 C 99 % 13 lf 1006,9 hPa 0,2 l/m 0 min 0,0 UV-I 18 W/m 10,3 km/h (2 Bft)
29.01.2013 08:58 8,8 C 7,3 C 99 % 12 lf 1006,9 hPa 0,0 l/m 0 min 0,0 UV-I 16 W/m 15,4 km/h (3 Bft)
29.01.2013 09:00 8,8 C 7,3 C 99 % 12 lf 1006,7 hPa 0,0 l/m 0 min 0,0 UV-I 14 W/m 10,3 km/h (2 Bft)
29.01.2013 09:02 8,8 C 7,3 C 99 % 12 lf 1006,7 hPa 0,0 l/m 0 min 0,0 UV-I 12 W/m 20,6 km/h (4 Bft)
29.01.2013 09:04 8,8 C 7,3 C 99 % 13 lf 1006,7 hPa 0,0 l/m 0 min 0,0 UV-I 11 W/m 15,4 km/h (3 Bft)
29.01.2013 09:06 8,8 C 7,3 C 99 % 12 lf 1006,7 hPa 0,2 l/m 0 min 0,0 UV-I 12 W/m 25,7 km/h (4 Bft)
29.01.2013 09:08 8,8 C 7,3 C 99 % 12 lf 1006,6 hPa 0,0 l/m 0 min 0,0 UV-I 14 W/m 15,4 km/h (3 Bft)
29.01.2013 09:10 8,8 C 7,3 C 99 % 12 lf 1006,7 hPa 0,2 l/m 0 min 0,0 UV-I 16 W/m 15,4 km/h (3 Bft)
29.01.2013 09:12 8,8 C 7,3 C 99 % 13 lf 1006,6 hPa 0,0 l/m 0 min 0,0 UV-I 16 W/m 12,9 km/h (3 Bft)
29.01.2013 09:14 8,9 C 7,3 C 99 % 13 lf 1006,6 hPa 0,0 l/m 0 min 0,0 UV-I 12 W/m 10,3 km/h (2 Bft)
29.01.2013 09:16 8,9 C 7,3 C 99 % 13 lf 1006,7 hPa 0,0 l/m 0 min 0,0 UV-I 12 W/m 12,9 km/h (3 Bft)
29.01.2013 09:18 8,9 C 7,3 C 99 % 12 lf 1006,7 hPa 0,0 l/m 0 min 0,0 UV-I 12 W/m 15,4 km/h (3 Bft)
29.01.2013 09:20 8,9 C 7,3 C 99 % 12 lf 1006,7 hPa 0,2 l/m 0 min 0,0 UV-I 12 W/m 5,1 km/h (1 Bft)
29.01.2013 09:22 8,9 C 7,3 C 99 % 12 lf 1006,7 hPa 0,0 l/m 0 min 0,0 UV-I 14 W/m 10,3 km/h (2 Bft)
29.01.2013 09:24 8,9 C 7,3 C 99 % 12 lf 1006,7 hPa 0,2 l/m 0 min 0,0 UV-I 14 W/m 5,1 km/h (1 Bft)
29.01.2013 09:26 8,9 C 7,3 C 99 % 12 lf 1006,7 hPa 0,0 l/m 0 min 0,0 UV-I 14 W/m 7,7 km/h (2 Bft)
29.01.2013 09:28 8,9 C 7,3 C 99 % 12 lf 1006,7 hPa 0,0 l/m 0 min 0,0 UV-I 14 W/m 12,9 km/h (3 Bft)
29.01.2013 09:30 8,9 C 7,3 C 99 % 12 lf 1006,7 hPa 0,2 l/m 0 min 0,0 UV-I 14 W/m 10,3 km/h (2 Bft)
29.01.2013 09:32 8,9 C 7,3 C 99 % 12 lf 1006,7 hPa 0,0 l/m 0 min 0,0 UV-I 19 W/m 10,3 km/h (2 Bft)
29.01.2013 09:34 8,9 C 7,3 C 99 % 13 lf 1006,8 hPa 0,0 l/m 0 min 0,0 UV-I 23 W/m 20,6 km/h (4 Bft)
29.01.2013 09:36 9,0 C 7,3 C 99 % 13 lf 1006,8 hPa 0,0 l/m 0 min 0,0 UV-I 25 W/m 12,9 km/h (3 Bft)
29.01.2013 09:38 9,0 C 7,3 C 99 % 15 lf 1006,9 hPa 0,0 l/m 0 min 0,0 UV-I 25 W/m 15,4 km/h (3 Bft)
29.01.2013 09:40 9,0 C 7,9 C 99 % 15 lf 1006,8 hPa 0,0 l/m 0 min 0,0 UV-I 26 W/m 10,3 km/h (2 Bft)
29.01.2013 09:42 9,0 C 7,9 C 99 % 14 lf 1006,8 hPa 0,2 l/m 0 min 0,0 UV-I 25 W/m 23,2 km/h (4 Bft)
29.01.2013 09:44 9,1 C 7,9 C 99 % 14 lf 1006,8 hPa 0,0 l/m 0 min 0,0 UV-I 23 W/m 18,0 km/h (3 Bft)
29.01.2013 09:46 9,1 C 7,9 C 99 % 14 lf 1006,9 hPa 0,0 l/m 0 min 0,0 UV-I 21 W/m 5,1 km/h (1 Bft)
29.01.2013 09:48 9,1 C 7,9 C 99 % 13 lf 1007,0 hPa 0,0 l/m 0 min 0,0 UV-I 21 W/m 12,9 km/h (3 Bft)
29.01.2013 09:50 9,1 C 7,9 C 99 % 13 lf 1006,9 hPa 0,0 l/m 0 min 0,0 UV-I 23 W/m 15,4 km/h (3 Bft)
29.01.2013 09:52 9,1 C 7,9 C 99 % 13 lf 1006,8 hPa 0,2 l/m 0 min 0,0 UV-I 23 W/m 10,3 km/h (2 Bft)
29.01.2013 09:54 9,1 C 7,9 C 100 % 13 lf 1006,9 hPa 0,0 l/m 0 min 0,0 UV-I 26 W/m 12,9 km/h (3 Bft)
29.01.2013 09:56 9,1 C 7,9 C 100 % 13 lf 1006,7 hPa 0,0 l/m 0 min 0,0 UV-I 30 W/m 15,4 km/h (3 Bft)
29.01.2013 09:58 9,1 C 7,9 C 100 % 13 lf 1006,7 hPa 0,0 l/m 0 min 0,0 UV-I 32 W/m 18,0 km/h (3 Bft)
29.01.2013 10:00 9,2 C 7,9 C 100 % 13 lf 1006,7 hPa 0,2 l/m 0 min 0,0 UV-I 26 W/m 12,9 km/h (3 Bft)
29.01.2013 10:02 9,2 C 7,9 C 100 % 13 lf 1006,7 hPa 0,0 l/m 0 min 0,0 UV-I 26 W/m 5,1 km/h (1 Bft)
29.01.2013 10:04 9,2 C 7,9 C 100 % 13 lf 1006,7 hPa 0,0 l/m 0 min 0,0 UV-I 26 W/m 10,3 km/h (2 Bft)
29.01.2013 10:06 9,2 C 7,9 C 100 % 13 lf 1006,7 hPa 0,0 l/m 0 min 0,0 UV-I 32 W/m 20,6 km/h (4 Bft)
29.01.2013 10:08 9,2 C 7,9 C 100 % 13 lf 1006,7 hPa 0,0 l/m 0 min 0,0 UV-I 37 W/m 12,9 km/h (3 Bft)
29.01.2013 10:10 9,2 C 7,9 C 100 % 13 lf 1006,8 hPa 0,0 l/m 0 min 0,0 UV-I 32 W/m 12,9 km/h (3 Bft)
29.01.2013 10:12 9,2 C 7,9 C 100 % 13 lf 1006,7 hPa 0,0 l/m 0 min 0,0 UV-I 28 W/m 20,6 km/h (4 Bft)
29.01.2013 10:14 9,2 C 7,9 C 100 % 13 lf 1006,7 hPa 0,2 l/m 0 min 0,0 UV-I 28 W/m 12,9 km/h (3 Bft)
29.01.2013 10:16 9,3 C 7,9 C 100 % 14 lf 1006,7 hPa 0,0 l/m 0 min 0,0 UV-I 25 W/m 10,3 km/h (2 Bft)
29.01.2013 10:18 9,3 C 7,9 C 100 % 14 lf 1006,6 hPa 0,0 l/m 0 min 0,0 UV-I 21 W/m 12,9 km/h (3 Bft)
29.01.2013 10:20 9,3 C 7,9 C 100 % 14 lf 1006,7 hPa 0,0 l/m 0 min 0,0 UV-I 18 W/m 7,7 km/h (2 Bft)
29.01.2013 10:22 9,3 C 7,9 C 100 % 14 lf 1006,7 hPa 0,0 l/m 0 min 0,0 UV-I 19 W/m 12,9 km/h (3 Bft)
29.01.2013 10:24 9,3 C 7,9 C 100 % 14 lf 1006,8 hPa 0,0 l/m 0 min 0,0 UV-I 23 W/m 15,4 km/h (3 Bft)
29.01.2013 10:26 9,3 C 7,9 C 100 % 15 lf 1006,8 hPa 0,0 l/m 0 min 0,0 UV-I 28 W/m 10,3 km/h (2 Bft)
29.01.2013 10:28 9,3 C 7,9 C 100 % 15 lf 1006,9 hPa 0,0 l/m 0 min 0,0 UV-I 30 W/m 18,0 km/h (3 Bft)
29.01.2013 10:30 9,3 C 7,9 C 100 % 15 lf 1006,9 hPa 0,0 l/m 0 min 0,0 UV-I 30 W/m 15,4 km/h (3 Bft)
29.01.2013 10:32 9,4 C 7,9 C 100 % 15 lf 1007,0 hPa 0,0 l/m 0 min 0,0 UV-I 33 W/m 23,2 km/h (4 Bft)
29.01.2013 10:34 9,4 C 7,9 C 100 % 15 lf 1006,8 hPa 0,0 l/m 0 min 0,0 UV-I 37 W/m 23,2 km/h (4 Bft)
29.01.2013 10:36 9,4 C 8,4 C 100 % 15 lf 1006,9 hPa 0,0 l/m 0 min 0,0 UV-I 39 W/m 18,0 km/h (3 Bft)
29.01.2013 10:38 9,4 C 8,4 C 100 % 15 lf 1006,8 hPa 0,0 l/m 0 min 0,0 UV-I 46 W/m 15,4 km/h (3 Bft)
29.01.2013 10:40 9,4 C 8,4 C 100 % 15 lf 1007,0 hPa 0,0 l/m 0 min 0,0 UV-I 44 W/m 12,9 km/h (3 Bft)
29.01.2013 10:42 9,5 C 8,4 C 100 % 15 lf 1007,0 hPa 0,0 l/m 0 min 0,0 UV-I 42 W/m 12,9 km/h (3 Bft)
29.01.2013 10:44 9,5 C 8,4 C 100 % 15 lf 1007,0 hPa 0,0 l/m 0 min 0,0 UV-I 37 W/m 15,4 km/h (3 Bft)
29.01.2013 10:46 9,5 C 8,4 C 100 % 15 lf 1007,1 hPa 0,0 l/m 0 min 0,0 UV-I 33 W/m 15,4 km/h (3 Bft)
29.01.2013 10:48 9,6 C 8,4 C 100 % 15 lf 1007,0 hPa 0,0 l/m 0 min 0,0 UV-I 33 W/m 15,4 km/h (3 Bft)
29.01.2013 10:50 9,6 C 8,4 C 100 % 15 lf 1007,2 hPa 0,2 l/m 0 min 0,0 UV-I 33 W/m 18,0 km/h (3 Bft)
29.01.2013 10:52 9,6 C 8,4 C 100 % 15 lf 1007,2 hPa 0,0 l/m 0 min 0,0 UV-I 33 W/m 18,0 km/h (3 Bft)
29.01.2013 10:54 9,6 C 8,4 C 100 % 15 lf 1007,2 hPa 0,0 l/m 0 min 0,0 UV-I 37 W/m 10,3 km/h (2 Bft)
29.01.2013 10:56 9,6 C 8,4 C 100 % 15 lf 1007,3 hPa 0,0 l/m 0 min 0,0 UV-I 54 W/m 15,4 km/h (3 Bft)
29.01.2013 10:58 9,6 C 8,4 C 100 % 15 lf 1007,3 hPa 0,0 l/m 0 min 0,0 UV-I 53 W/m 20,6 km/h (4 Bft)
29.01.2013 11:00 9,6 C 8,4 C 100 % 15 lf 1007,3 hPa 0,0 l/m 0 min 0,0 UV-I 63 W/m 18,0 km/h (3 Bft)
29.01.2013 11:02 9,7 C 8,4 C 100 % 15 lf 1007,1 hPa 0,0 l/m 0 min 0,0 UV-I 62 W/m 12,9 km/h (3 Bft)
29.01.2013 11:04 9,7 C 8,4 C 100 % 14 lf 1006,9 hPa 0,0 l/m 0 min 0,0 UV-I 54 W/m 15,4 km/h (3 Bft)
29.01.2013 11:06 9,7 C 8,4 C 100 % 14 lf 1006,9 hPa 0,0 l/m 0 min 0,0 UV-I 46 W/m 15,4 km/h (3 Bft)
29.01.2013 11:08 9,7 C 8,4 C 100 % 14 lf 1006,9 hPa 0,2 l/m 0 min 0,0 UV-I 44 W/m 25,7 km/h (4 Bft)
29.01.2013 11:10 9,7 C 8,4 C 100 % 14 lf 1007,1 hPa 0,0 l/m 0 min 0,0 UV-I 37 W/m 25,7 km/h (4 Bft)
29.01.2013 11:12 9,7 C 8,4 C 100 % 14 lf 1007,0 hPa 0,0 l/m 0 min 0,0 UV-I 47 W/m 28,3 km/h (4 Bft)
29.01.2013 11:14 9,8 C 8,4 C 100 % 14 lf 1007,1 hPa 0,0 l/m 0 min 0,0 UV-I 69 W/m 12,9 km/h (3 Bft)
29.01.2013 11:16 9,8 C 8,4 C 100 % 14 lf 1007,0 hPa 0,0 l/m 0 min 0,0 UV-I 65 W/m 23,2 km/h (4 Bft)
29.01.2013 11:18 9,8 C 8,4 C 100 % 14 lf 1007,0 hPa 0,0 l/m 0 min 0,0 UV-I 74 W/m 12,9 km/h (3 Bft)
29.01.2013 11:20 9,8 C 8,4 C 100 % 14 lf 1007,0 hPa 0,0 l/m 0 min 0,0 UV-I 69 W/m 15,4 km/h (3 Bft)
29.01.2013 11:22 9,8 C 8,4 C 100 % 14 lf 1007,0 hPa 0,0 l/m 0 min 0,0 UV-I 56 W/m 25,7 km/h (4 Bft)
29.01.2013 11:24 9,8 C 8,4 C 100 % 14 lf 1007,4 hPa 0,2 l/m 0 min 0,0 UV-I 69 W/m 18,0 km/h (3 Bft)
29.01.2013 11:26 9,8 C 8,4 C 100 % 15 lf 1007,2 hPa 0,0 l/m 0 min 0,0 UV-I 56 W/m 18,0 km/h (3 Bft)
29.01.2013 11:28 9,8 C 8,4 C 100 % 15 lf 1007,2 hPa 0,0 l/m 0 min 0,0 UV-I 49 W/m 12,9 km/h (3 Bft)
29.01.2013 11:30 9,9 C 8,4 C 100 % 15 lf 1007,3 hPa 0,0 l/m 0 min 0,0 UV-I 54 W/m 25,7 km/h (4 Bft)
29.01.2013 11:32 9,9 C 8,4 C 100 % 15 lf 1007,4 hPa 0,0 l/m 0 min 0,0 UV-I 35 W/m 23,2 km/h (4 Bft)
29.01.2013 11:34 9,9 C 8,4 C 100 % 15 lf 1007,3 hPa 0,0 l/m 0 min 0,0 UV-I 39 W/m 20,6 km/h (4 Bft)
29.01.2013 11:36 9,9 C 8,4 C 100 % 15 lf 1007,3 hPa 0,0 l/m 0 min 0,0 UV-I 39 W/m 18,0 km/h (3 Bft)
29.01.2013 11:38 9,9 C 8,4 C 100 % 15 lf 1007,3 hPa 0,0 l/m 0 min 0,0 UV-I 39 W/m 20,6 km/h (4 Bft)
29.01.2013 11:40 9,9 C 8,4 C 100 % 15 lf 1007,4 hPa 0,0 l/m 0 min 0,0 UV-I 37 W/m 15,4 km/h (3 Bft)
29.01.2013 11:42 9,9 C 8,4 C 100 % 15 lf 1007,5 hPa 0,0 l/m 0 min 0,0 UV-I 39 W/m 25,7 km/h (4 Bft)
29.01.2013 11:44 9,9 C 8,4 C 100 % 15 lf 1007,4 hPa 0,0 l/m 0 min 0,0 UV-I 40 W/m 25,7 km/h (4 Bft)
29.01.2013 11:46 9,9 C 8,4 C 100 % 15 lf 1007,5 hPa 0,0 l/m 0 min 0,0 UV-I 44 W/m 12,9 km/h (3 Bft)
29.01.2013 11:48 9,9 C 8,4 C 100 % 15 lf 1007,5 hPa 0,0 l/m 0 min 0,0 UV-I 46 W/m 23,2 km/h (4 Bft)
29.01.2013 11:50 9,9 C 8,4 C 100 % 15 lf 1007,3 hPa 0,0 l/m 0 min 0,0 UV-I 44 W/m 18,0 km/h (3 Bft)
29.01.2013 11:52 9,9 C 8,4 C 100 % 15 lf 1007,3 hPa 0,0 l/m 0 min 0,0 UV-I 49 W/m 7,7 km/h (2 Bft)
29.01.2013 11:54 9,9 C 8,4 C 100 % 15 lf 1007,5 hPa 0,0 l/m 0 min 0,0 UV-I 46 W/m 12,9 km/h (3 Bft)
29.01.2013 11:56 9,9 C 8,4 C 100 % 15 lf 1007,4 hPa 0,0 l/m 0 min 0,0 UV-I 47 W/m 12,9 km/h (3 Bft)
29.01.2013 11:58 9,9 C 8,4 C 100 % 15 lf 1007,3 hPa 0,0 l/m 0 min 0,0 UV-I 44 W/m 12,9 km/h (3 Bft)
29.01.2013 12:00 9,9 C 8,4 C 100 % 15 lf 1007,2 hPa 0,0 l/m 0 min 0,0 UV-I 54 W/m 15,4 km/h (3 Bft)
29.01.2013 12:02 9,9 C 8,4 C 100 % 14 lf 1007,4 hPa 0,2 l/m 0 min 0,0 UV-I 56 W/m 20,6 km/h (4 Bft)
29.01.2013 12:04 9,9 C 8,4 C 100 % 14 lf 1007,3 hPa 0,0 l/m 0 min 0,0 UV-I 53 W/m 10,3 km/h (2 Bft)
29.01.2013 12:06 9,9 C 8,4 C 100 % 14 lf 1007,3 hPa 0,0 l/m 0 min 0,0 UV-I 56 W/m 15,4 km/h (3 Bft)
29.01.2013 12:08 10,0 C 8,4 C 100 % 14 lf 1007,2 hPa 0,0 l/m 0 min 0,0 UV-I 51 W/m 15,4 km/h (3 Bft)
29.01.2013 12:10 10,0 C 9,0 C 100 % 15 lf 1007,3 hPa 0,0 l/m 0 min 0,0 UV-I 56 W/m 12,9 km/h (3 Bft)
29.01.2013 12:12 10,0 C 9,0 C 100 % 15 lf 1007,3 hPa 0,0 l/m 0 min 0,0 UV-I 60 W/m 7,7 km/h (2 Bft)
29.01.2013 12:14 10,0 C 9,0 C 100 % 15 lf 1007,1 hPa 0,0 l/m 0 min 0,0 UV-I 53 W/m 10,3 km/h (2 Bft)
29.01.2013 12:16 10,1 C 9,0 C 100 % 15 lf 1007,2 hPa 0,0 l/m 0 min 0,0 UV-I 51 W/m 18,0 km/h (3 Bft)
29.01.2013 12:18 10,1 C 9,0 C 100 % 15 lf 1007,2 hPa 0,0 l/m 0 min 0,0 UV-I 51 W/m 7,7 km/h (2 Bft)
29.01.2013 12:20 10,1 C 9,0 C 100 % 15 lf 1007,3 hPa 0,0 l/m 0 min 0,0 UV-I 60 W/m 15,4 km/h (3 Bft)
29.01.2013 12:22 10,1 C 9,0 C 100 % 15 lf 1007,3 hPa 0,2 l/m 0 min 0,0 UV-I 58 W/m 25,7 km/h (4 Bft)
29.01.2013 12:24 10,1 C 9,0 C 100 % 15 lf 1007,2 hPa 0,0 l/m 0 min 0,0 UV-I 49 W/m 15,4 km/h (3 Bft)
29.01.2013 12:26 10,1 C 9,0 C 100 % 15 lf 1007,2 hPa 0,0 l/m 0 min 0,0 UV-I 53 W/m 15,4 km/h (3 Bft)
29.01.2013 12:28 10,1 C 9,0 C 100 % 15 lf 1007,2 hPa 0,0 l/m 0 min 0,0 UV-I 58 W/m 23,2 km/h (4 Bft)
29.01.2013 12:30 10,1 C 9,0 C 100 % 15 lf 1007,3 hPa 0,0 l/m 0 min 0,0 UV-I 60 W/m 15,4 km/h (3 Bft)
29.01.2013 12:32 10,1 C 9,0 C 100 % 15 lf 1007,1 hPa 0,0 l/m 0 min 0,0 UV-I 54 W/m 12,9 km/h (3 Bft)
29.01.2013 12:34 10,1 C 9,0 C 100 % 15 lf 1007,1 hPa 0,0 l/m 0 min 0,0 UV-I 53 W/m 12,9 km/h (3 Bft)
29.01.2013 12:36 10,1 C 9,0 C 100 % 15 lf 1007,1 hPa 0,0 l/m 0 min 0,0 UV-I 58 W/m 18,0 km/h (3 Bft)
29.01.2013 12:38 10,1 C 9,0 C 100 % 15 lf 1007,1 hPa 0,0 l/m 0 min 0,0 UV-I 62 W/m 20,6 km/h (4 Bft)
29.01.2013 12:40 10,1 C 9,0 C 100 % 15 lf 1007,2 hPa 0,0 l/m 0 min 0,0 UV-I 69 W/m 12,9 km/h (3 Bft)
29.01.2013 12:42 10,1 C 9,0 C 100 % 15 lf 1007,2 hPa 0,0 l/m 0 min 0,0 UV-I 65 W/m 25,7 km/h (4 Bft)
29.01.2013 12:44 10,1 C 9,0 C 100 % 15 lf 1007,2 hPa 0,0 l/m 0 min 0,0 UV-I 62 W/m 20,6 km/h (4 Bft)
29.01.2013 12:46 10,2 C 9,0 C 100 % 15 lf 1007,2 hPa 0,0 l/m 0 min 0,0 UV-I 60 W/m 20,6 km/h (4 Bft)
29.01.2013 12:48 10,2 C 9,0 C 100 % 15 lf 1007,2 hPa 0,0 l/m 0 min 0,0 UV-I 51 W/m 15,4 km/h (3 Bft)
29.01.2013 12:50 10,2 C 9,0 C 100 % 15 lf 1007,2 hPa 0,0 l/m 0 min 0,0 UV-I 62 W/m 15,4 km/h (3 Bft)
29.01.2013 12:52 10,2 C 9,0 C 100 % 15 lf 1007,2 hPa 0,0 l/m 0 min 0,0 UV-I 60 W/m 10,3 km/h (2 Bft)
29.01.2013 12:54 10,2 C 9,0 C 100 % 15 lf 1007,1 hPa 0,0 l/m 0 min 0,0 UV-I 65 W/m 20,6 km/h (4 Bft)
29.01.2013 12:56 10,2 C 9,0 C 100 % 15 lf 1007,1 hPa 0,0 l/m 0 min 0,0 UV-I 60 W/m 10,3 km/h (2 Bft)
29.01.2013 12:58 10,2 C 9,0 C 100 % 15 lf 1007,0 hPa 0,0 l/m 0 min 0,0 UV-I 67 W/m 10,3 km/h (2 Bft)
29.01.2013 13:00 10,2 C 9,0 C 100 % 15 lf 1007,0 hPa 0,0 l/m 0 min 0,0 UV-I 62 W/m 12,9 km/h (3 Bft)
29.01.2013 13:02 10,2 C 9,0 C 100 % 15 lf 1006,9 hPa 0,0 l/m 0 min 0,0 UV-I 69 W/m 25,7 km/h (4 Bft)
29.01.2013 13:04 10,2 C 9,0 C 100 % 15 lf 1007,1 hPa 0,2 l/m 0 min 0,0 UV-I 67 W/m 23,2 km/h (4 Bft)
29.01.2013 13:06 10,2 C 9,0 C 100 % 15 lf 1007,1 hPa 0,0 l/m 0 min 0,0 UV-I 65 W/m 15,4 km/h (3 Bft)
29.01.2013 13:08 10,2 C 9,0 C 100 % 15 lf 1007,1 hPa 0,0 l/m 0 min 0,0 UV-I 54 W/m 28,3 km/h (4 Bft)
29.01.2013 13:10 10,2 C 9,0 C 100 % 15 lf 1007,2 hPa 0,0 l/m 0 min 0,0 UV-I 56 W/m 15,4 km/h (3 Bft)
29.01.2013 13:12 10,2 C 9,0 C 100 % 15 lf 1007,2 hPa 0,0 l/m 0 min 0,0 UV-I 53 W/m 28,3 km/h (4 Bft)
29.01.2013 13:14 10,3 C 9,0 C 100 % 15 lf 1007,2 hPa 0,0 l/m 0 min 0,0 UV-I 49 W/m 15,4 km/h (3 Bft)
29.01.2013 13:16 10,2 C 9,0 C 100 % 15 lf 1007,1 hPa 0,0 l/m 0 min 0,0 UV-I 53 W/m 15,4 km/h (3 Bft)
29.01.2013 13:18 10,3 C 9,0 C 100 % 15 lf 1007,2 hPa 0,0 l/m 0 min 0,0 UV-I 53 W/m 25,7 km/h (4 Bft)
29.01.2013 13:20 10,3 C 9,0 C 100 % 15 lf 1007,3 hPa 0,0 l/m 0 min 0,0 UV-I 58 W/m 18,0 km/h (3 Bft)
29.01.2013 13:22 10,3 C 9,0 C 100 % 15 lf 1007,2 hPa 0,0 l/m 0 min 0,0 UV-I 54 W/m 12,9 km/h (3 Bft)
29.01.2013 13:24 10,3 C 9,0 C 100 % 15 lf 1007,3 hPa 0,0 l/m 0 min 0,0 UV-I 65 W/m 23,2 km/h (4 Bft)
29.01.2013 13:26 10,3 C 9,0 C 100 % 15 lf 1007,2 hPa 0,0 l/m 0 min 0,0 UV-I 58 W/m 18,0 km/h (3 Bft)
29.01.2013 13:28 10,3 C 9,0 C 100 % 15 lf 1007,1 hPa 0,0 l/m 0 min 0,0 UV-I 56 W/m 12,9 km/h (3 Bft)
29.01.2013 13:30 10,3 C 9,0 C 100 % 15 lf 1007,2 hPa 0,0 l/m 0 min 0,0 UV-I 62 W/m 18,0 km/h (3 Bft)
29.01.2013 13:32 10,3 C 9,0 C 100 % 15 lf 1007,2 hPa 0,0 l/m 0 min 0,0 UV-I 70 W/m 15,4 km/h (3 Bft)
29.01.2013 13:34 10,3 C 9,0 C 100 % 15 lf 1007,3 hPa 0,0 l/m 0 min 0,0 UV-I 69 W/m 20,6 km/h (4 Bft)
29.01.2013 13:36 10,3 C 9,0 C 100 % 15 lf 1007,3 hPa 0,0 l/m 0 min 0,0 UV-I 56 W/m 30,9 km/h (5 Bft)
29.01.2013 13:38 10,3 C 9,0 C 100 % 15 lf 1007,2 hPa 0,0 l/m 0 min 0,0 UV-I 60 W/m 18,0 km/h (3 Bft)
29.01.2013 13:40 10,3 C 9,0 C 100 % 15 lf 1007,1 hPa 0,0 l/m 0 min 0,0 UV-I 51 W/m 12,9 km/h (3 Bft)
29.01.2013 13:42 10,3 C 9,0 C 100 % 15 lf 1007,2 hPa 0,0 l/m 0 min 0,0 UV-I 51 W/m 15,4 km/h (3 Bft)
29.01.2013 13:44 10,3 C 9,0 C 100 % 15 lf 1007,2 hPa 0,0 l/m 0 min 0,0 UV-I 56 W/m 15,4 km/h (3 Bft)
29.01.2013 13:46 10,3 C 9,0 C 100 % 15 lf 1007,1 hPa 0,0 l/m 0 min 0,0 UV-I 63 W/m 18,0 km/h (3 Bft)
29.01.2013 13:48 10,4 C 9,0 C 100 % 15 lf 1007,1 hPa 0,0 l/m 0 min 0,0 UV-I 60 W/m 20,6 km/h (4 Bft)
29.01.2013 13:50 10,4 C 9,0 C 100 % 15 lf 1007,3 hPa 0,0 l/m 0 min 0,0 UV-I 58 W/m 15,4 km/h (3 Bft)
29.01.2013 13:52 10,4 C 9,0 C 100 % 15 lf 1007,2 hPa 0,0 l/m 0 min 0,0 UV-I 69 W/m 20,6 km/h (4 Bft)
29.01.2013 13:54 10,4 C 9,0 C 100 % 15 lf 1007,2 hPa 0,0 l/m 0 min 0,0 UV-I 67 W/m 25,7 km/h (4 Bft)
29.01.2013 13:56 10,4 C 9,0 C 100 % 15 lf 1007,3 hPa 0,0 l/m 0 min 0,0 UV-I 70 W/m 15,4 km/h (3 Bft)
29.01.2013 13:58 10,4 C 9,0 C 100 % 15 lf 1007,2 hPa 0,0 l/m 0 min 0,0 UV-I 60 W/m 18,0 km/h (3 Bft)
29.01.2013 14:00 10,4 C 9,0 C 100 % 15 lf 1007,1 hPa 0,0 l/m 0 min 0,0 UV-I 54 W/m 15,4 km/h (3 Bft)
29.01.2013 14:02 10,4 C 9,0 C 100 % 15 lf 1007,1 hPa 0,0 l/m 0 min 0,0 UV-I 53 W/m 12,9 km/h (3 Bft)
29.01.2013 14:04 10,4 C 9,0 C 100 % 15 lf 1007,2 hPa 0,0 l/m 0 min 0,0 UV-I 47 W/m 15,4 km/h (3 Bft)
29.01.2013 14:06 10,4 C 9,0 C 100 % 15 lf 1007,4 hPa 0,0 l/m 0 min 0,0 UV-I 47 W/m 15,4 km/h (3 Bft)
29.01.2013 14:08 10,4 C 9,0 C 100 % 15 lf 1007,6 hPa 0,0 l/m 0 min 0,0 UV-I 40 W/m 15,4 km/h (3 Bft)
29.01.2013 14:10 10,4 C 9,0 C 99 % 15 lf 1007,6 hPa 0,0 l/m 0 min 0,0 UV-I 40 W/m 12,9 km/h (3 Bft)
29.01.2013 14:12 10,4 C 9,0 C 100 % 15 lf 1007,3 hPa 0,0 l/m 0 min 0,0 UV-I 46 W/m 15,4 km/h (3 Bft)
29.01.2013 14:14 10,4 C 9,0 C 100 % 15 lf 1007,3 hPa 0,0 l/m 0 min 0,0 UV-I 47 W/m 10,3 km/h (2 Bft)
29.01.2013 14:16 10,4 C 9,0 C 100 % 15 lf 1007,3 hPa 0,0 l/m 0 min 0,0 UV-I 44 W/m 18,0 km/h (3 Bft)
29.01.2013 14:18 10,5 C 9,0 C 100 % 15 lf 1007,3 hPa 0,0 l/m 0 min 0,0 UV-I 42 W/m 18,0 km/h (3 Bft)
29.01.2013 14:20 10,5 C 9,0 C 100 % 15 lf 1007,3 hPa 0,0 l/m 0 min 0,0 UV-I 33 W/m 23,2 km/h (4 Bft)
29.01.2013 14:22 10,5 C 9,0 C 99 % 15 lf 1007,5 hPa 0,0 l/m 0 min 0,0 UV-I 35 W/m 23,2 km/h (4 Bft)
29.01.2013 14:24 10,5 C 9,0 C 99 % 15 lf 1007,3 hPa 0,0 l/m 0 min 0,0 UV-I 39 W/m 10,3 km/h (2 Bft)
29.01.2013 14:26 10,5 C 9,0 C 99 % 15 lf 1007,5 hPa 0,0 l/m 0 min 0,0 UV-I 42 W/m 23,2 km/h (4 Bft)
29.01.2013 14:28 10,5 C 9,0 C 99 % 15 lf 1007,3 hPa 0,0 l/m 0 min 0,0 UV-I 39 W/m 15,4 km/h (3 Bft)
29.01.2013 14:30 10,5 C 9,0 C 99 % 15 lf 1007,3 hPa 0,0 l/m 0 min 0,0 UV-I 35 W/m 10,3 km/h (2 Bft)
29.01.2013 14:32 10,5 C 9,0 C 99 % 15 lf 1007,1 hPa 0,0 l/m 0 min 0,0 UV-I 42 W/m 7,7 km/h (2 Bft)
29.01.2013 14:34 10,5 C 9,0 C 99 % 15 lf 1007,1 hPa 0,0 l/m 0 min 0,0 UV-I 44 W/m 15,4 km/h (3 Bft)
29.01.2013 14:36 10,5 C 9,0 C 99 % 15 lf 1007,1 hPa 0,0 l/m 0 min 0,0 UV-I 40 W/m 10,3 km/h (2 Bft)
29.01.2013 14:38 10,6 C 9,0 C 99 % 15 lf 1007,1 hPa 0,0 l/m 0 min 0,0 UV-I 33 W/m 28,3 km/h (4 Bft)
29.01.2013 14:40 10,6 C 9,0 C 99 % 15 lf 1007,2 hPa 0,0 l/m 0 min 0,0 UV-I 35 W/m 25,7 km/h (4 Bft)
29.01.2013 14:42 10,6 C 9,0 C 99 % 15 lf 1007,2 hPa 0,2 l/m 0 min 0,0 UV-I 30 W/m 20,6 km/h (4 Bft)
29.01.2013 14:44 10,6 C 9,0 C 99 % 15 lf 1007,2 hPa 0,0 l/m 0 min 0,0 UV-I 25 W/m 10,3 km/h (2 Bft)
29.01.2013 14:46 10,6 C 9,0 C 99 % 15 lf 1007,2 hPa 0,0 l/m 0 min 0,0 UV-I 23 W/m 20,6 km/h (4 Bft)
29.01.2013 14:48 10,6 C 9,0 C 99 % 15 lf 1007,2 hPa 0,0 l/m 0 min 0,0 UV-I 25 W/m 15,4 km/h (3 Bft)
29.01.2013 14:50 10,6 C 9,0 C 99 % 15 lf 1007,2 hPa 0,0 l/m 0 min 0,0 UV-I 23 W/m 12,9 km/h (3 Bft)
29.01.2013 14:52 10,6 C 9,0 C 99 % 15 lf 1007,3 hPa 0,0 l/m 0 min 0,0 UV-I 19 W/m 20,6 km/h (4 Bft)
29.01.2013 14:54 10,6 C 9,0 C 99 % 15 lf 1007,3 hPa 0,0 l/m 0 min 0,0 UV-I 18 W/m 18,0 km/h (3 Bft)
29.01.2013 14:56 10,6 C 9,0 C 99 % 15 lf 1007,5 hPa 0,0 l/m 0 min 0,0 UV-I 18 W/m 20,6 km/h (4 Bft)
29.01.2013 14:58 10,6 C 9,0 C 99 % 15 lf 1007,3 hPa 0,0 l/m 0 min 0,0 UV-I 18 W/m 10,3 km/h (2 Bft)
29.01.2013 15:00 10,6 C 9,0 C 99 % 15 lf 1007,3 hPa 0,0 l/m 0 min 0,0 UV-I 21 W/m 10,3 km/h (2 Bft)
29.01.2013 15:02 10,6 C 9,0 C 99 % 15 lf 1007,2 hPa 0,0 l/m 0 min 0,0 UV-I 26 W/m 12,9 km/h (3 Bft)
29.01.2013 15:04 10,6 C 9,0 C 99 % 15 lf 1007,2 hPa 0,0 l/m 0 min 0,0 UV-I 30 W/m 25,7 km/h (4 Bft)
29.01.2013 15:06 10,6 C 9,0 C 99 % 15 lf 1007,2 hPa 0,2 l/m 0 min 0,0 UV-I 25 W/m 15,4 km/h (3 Bft)
29.01.2013 15:08 10,6 C 9,0 C 99 % 15 lf 1007,2 hPa 0,0 l/m 0 min 0,0 UV-I 35 W/m 23,2 km/h (4 Bft)
29.01.2013 15:10 10,6 C 9,0 C 99 % 15 lf 1007,1 hPa 0,0 l/m 0 min 0,0 UV-I 35 W/m 20,6 km/h (4 Bft)
29.01.2013 15:12 10,6 C 9,0 C 99 % 15 lf 1007,3 hPa 0,0 l/m 0 min 0,0 UV-I 37 W/m 15,4 km/h (3 Bft)
29.01.2013 15:14 10,6 C 9,0 C 99 % 15 lf 1007,2 hPa 0,0 l/m 0 min 0,0 UV-I 35 W/m 12,9 km/h (3 Bft)
29.01.2013 15:16 10,6 C 9,0 C 99 % 15 lf 1007,2 hPa 0,0 l/m 0 min 0,0 UV-I 30 W/m 18,0 km/h (3 Bft)
29.01.2013 15:18 10,7 C 9,0 C 99 % 15 lf 1007,1 hPa 0,0 l/m 0 min 0,0 UV-I 33 W/m 15,4 km/h (3 Bft)
29.01.2013 15:20 10,7 C 9,0 C 99 % 15 lf 1007,3 hPa 0,0 l/m 0 min 0,0 UV-I 32 W/m 12,9 km/h (3 Bft)
29.01.2013 15:22 10,7 C 9,0 C 99 % 15 lf 1007,2 hPa 0,0 l/m 0 min 0,0 UV-I 28 W/m 10,3 km/h (2 Bft)
29.01.2013 15:24 10,7 C 9,0 C 99 % 15 lf 1007,2 hPa 0,0 l/m 0 min 0,0 UV-I 26 W/m 7,7 km/h (2 Bft)
29.01.2013 15:26 10,7 C 9,0 C 99 % 15 lf 1007,1 hPa 0,0 l/m 0 min 0,0 UV-I 25 W/m 15,4 km/h (3 Bft)
29.01.2013 15:28 10,7 C 9,0 C 99 % 15 lf 1007,2 hPa 0,0 l/m 0 min 0,0 UV-I 30 W/m 12,9 km/h (3 Bft)
29.01.2013 15:30 10,7 C 9,0 C 99 % 15 lf 1007,1 hPa 0,0 l/m 0 min 0,0 UV-I 23 W/m 18,0 km/h (3 Bft)
29.01.2013 15:32 10,7 C 9,0 C 99 % 15 lf 1007,2 hPa 0,0 l/m 0 min 0,0 UV-I 23 W/m 23,2 km/h (4 Bft)
29.01.2013 15:34 10,7 C 9,0 C 99 % 15 lf 1007,1 hPa 0,0 l/m 0 min 0,0 UV-I 21 W/m 23,2 km/h (4 Bft)
29.01.2013 15:36 10,7 C 9,0 C 99 % 15 lf 1007,2 hPa 0,0 l/m 0 min 0,0 UV-I 18 W/m 23,2 km/h (4 Bft)
29.01.2013 15:38 10,7 C 9,0 C 99 % 15 lf 1007,2 hPa 0,0 l/m 0 min 0,0 UV-I 18 W/m 15,4 km/h (3 Bft)
29.01.2013 15:40 10,7 C 9,0 C 99 % 15 lf 1007,2 hPa 0,0 l/m 0 min 0,0 UV-I 16 W/m 12,9 km/h (3 Bft)
29.01.2013 15:42 10,7 C 9,0 C 99 % 15 lf 1007,1 hPa 0,2 l/m 0 min 0,0 UV-I 16 W/m 20,6 km/h (4 Bft)
29.01.2013 15:44 10,7 C 9,0 C 99 % 15 lf 1007,1 hPa 0,0 l/m 0 min 0,0 UV-I 19 W/m 20,6 km/h (4 Bft)
29.01.2013 15:46 10,7 C 9,0 C 99 % 15 lf 1007,1 hPa 0,0 l/m 0 min 0,0 UV-I 21 W/m 25,7 km/h (4 Bft)
29.01.2013 15:48 10,7 C 9,0 C 99 % 15 lf 1007,2 hPa 0,0 l/m 0 min 0,0 UV-I 23 W/m 18,0 km/h (3 Bft)
29.01.2013 15:50 10,7 C 9,0 C 99 % 15 lf 1007,1 hPa 0,0 l/m 0 min 0,0 UV-I 26 W/m 20,6 km/h (4 Bft)
29.01.2013 15:52 10,7 C 9,0 C 99 % 15 lf 1007,2 hPa 0,0 l/m 0 min 0,0 UV-I 26 W/m 10,3 km/h (2 Bft)
29.01.2013 15:54 10,7 C 9,0 C 99 % 15 lf 1007,1 hPa 0,0 l/m 0 min 0,0 UV-I 26 W/m 18,0 km/h (3 Bft)
29.01.2013 15:56 10,7 C 9,0 C 99 % 15 lf 1007,1 hPa 0,0 l/m 0 min 0,0 UV-I 21 W/m 15,4 km/h (3 Bft)
29.01.2013 15:58 10,7 C 9,0 C 99 % 15 lf 1007,2 hPa 0,0 l/m 0 min 0,0 UV-I 19 W/m 30,9 km/h (5 Bft)
29.01.2013 16:00 10,7 C 9,0 C 99 % 15 lf 1007,2 hPa 0,0 l/m 0 min 0,0 UV-I 18 W/m 20,6 km/h (4 Bft)
29.01.2013 16:02 10,7 C 9,0 C 99 % 15 lf 1007,2 hPa 0,0 l/m 0 min 0,0 UV-I 16 W/m 20,6 km/h (4 Bft)
29.01.2013 16:04 10,7 C 9,0 C 99 % 15 lf 1007,1 hPa 0,0 l/m 0 min 0,0 UV-I 18 W/m 12,9 km/h (3 Bft)
29.01.2013 16:06 10,7 C 9,0 C 99 % 15 lf 1007,2 hPa 0,0 l/m 0 min 0,0 UV-I 23 W/m 15,4 km/h (3 Bft)
29.01.2013 16:08 10,7 C 9,0 C 99 % 15 lf 1007,1 hPa 0,0 l/m 0 min 0,0 UV-I 25 W/m 18,0 km/h (3 Bft)
29.01.2013 16:10 10,7 C 9,0 C 99 % 15 lf 1007,1 hPa 0,0 l/m 0 min 0,0 UV-I 26 W/m 18,0 km/h (3 Bft)
29.01.2013 16:12 10,7 C 9,0 C 99 % 15 lf 1007,2 hPa 0,0 l/m 0 min 0,0 UV-I 19 W/m 30,9 km/h (5 Bft)
29.01.2013 16:14 10,7 C 9,0 C 99 % 15 lf 1007,3 hPa 0,0 l/m 0 min 0,0 UV-I 25 W/m 41,2 km/h (6 Bft)
29.01.2013 16:16 10,7 C 9,0 C 99 % 15 lf 1007,3 hPa 0,0 l/m 0 min 0,0 UV-I 19 W/m 23,2 km/h (4 Bft)
29.01.2013 16:18 10,7 C 9,0 C 99 % 15 lf 1007,2 hPa 0,0 l/m 0 min 0,0 UV-I 18 W/m 20,6 km/h (4 Bft)
29.01.2013 16:20 10,7 C 9,0 C 99 % 15 lf 1007,5 hPa 0,0 l/m 0 min 0,0 UV-I 14 W/m 28,3 km/h (4 Bft)
29.01.2013 16:22 10,7 C 9,0 C 99 % 15 lf 1007,3 hPa 0,0 l/m 0 min 0,0 UV-I 16 W/m 15,4 km/h (3 Bft)
29.01.2013 16:24 10,7 C 9,0 C 99 % 15 lf 1007,4 hPa 0,0 l/m 0 min 0,0 UV-I 14 W/m 18,0 km/h (3 Bft)
29.01.2013 16:26 10,7 C 9,0 C 99 % 15 lf 1007,3 hPa 0,0 l/m 0 min 0,0 UV-I 16 W/m 23,2 km/h (4 Bft)
29.01.2013 16:28 10,7 C 9,0 C 99 % 15 lf 1007,3 hPa 0,0 l/m 0 min 0,0 UV-I 16 W/m 23,2 km/h (4 Bft)
29.01.2013 16:30 10,7 C 9,0 C 99 % 15 lf 1007,5 hPa 0,0 l/m 0 min 0,0 UV-I 14 W/m 30,9 km/h (5 Bft)
29.01.2013 16:32 10,7 C 9,0 C 99 % 15 lf 1007,3 hPa 0,0 l/m 0 min 0,0 UV-I 14 W/m 20,6 km/h (4 Bft)
29.01.2013 16:34 10,7 C 9,0 C 99 % 15 lf 1007,3 hPa 0,0 l/m 0 min 0,0 UV-I 14 W/m 12,9 km/h (3 Bft)
29.01.2013 16:36 10,7 C 9,0 C 99 % 15 lf 1007,3 hPa 0,0 l/m 0 min 0,0 UV-I 14 W/m 15,4 km/h (3 Bft)
29.01.2013 16:38 10,7 C 9,0 C 99 % 15 lf 1007,3 hPa 0,0 l/m 0 min 0,0 UV-I 11 W/m 23,2 km/h (4 Bft)
29.01.2013 16:40 10,7 C 9,0 C 99 % 15 lf 1007,3 hPa 0,0 l/m 0 min 0,0 UV-I 9 W/m 7,7 km/h (2 Bft)
29.01.2013 16:42 10,7 C 9,0 C 99 % 15 lf 1007,2 hPa 0,0 l/m 0 min 0,0 UV-I 9 W/m 18,0 km/h (3 Bft)
29.01.2013 16:44 10,7 C 9,0 C 99 % 15 lf 1007,2 hPa 0,0 l/m 0 min 0,0 UV-I 9 W/m 7,7 km/h (2 Bft)
29.01.2013 16:46 10,7 C 9,0 C 99 % 15 lf 1007,3 hPa 0,0 l/m 0 min 0,0 UV-I 9 W/m 23,2 km/h (4 Bft)
29.01.2013 16:48 10,7 C 9,0 C 99 % 15 lf 1007,2 hPa 0,0 l/m 0 min 0,0 UV-I 7 W/m 18,0 km/h (3 Bft)
29.01.2013 16:50 10,7 C 9,0 C 99 % 15 lf 1007,2 hPa 0,0 l/m 0 min 0,0 UV-I 7 W/m 18,0 km/h (3 Bft)
29.01.2013 16:52 10,7 C 9,0 C 99 % 15 lf 1007,1 hPa 0,0 l/m 0 min 0,0 UV-I 5 W/m 28,3 km/h (4 Bft)
29.01.2013 16:54 10,7 C 9,0 C 99 % 15 lf 1007,1 hPa 0,0 l/m 0 min 0,0 UV-I 5 W/m 20,6 km/h (4 Bft)
29.01.2013 16:56 10,7 C 9,0 C 99 % 15 lf 1007,2 hPa 0,0 l/m 0 min 0,0 UV-I 0 W/m 18,0 km/h (3 Bft)
29.01.2013 16:58 10,7 C 9,0 C 99 % 15 lf 1007,2 hPa 0,0 l/m 0 min 0,0 UV-I 0 W/m 18,0 km/h (3 Bft)
29.01.2013 17:00 10,7 C 9,0 C 99 % 15 lf 1007,1 hPa 0,0 l/m 0 min 0,0 UV-I 0 W/m 23,2 km/h (4 Bft)
29.01.2013 17:02 10,7 C 9,0 C 99 % 15 lf 1007,2 hPa 0,0 l/m 0 min 0,0 UV-I 0 W/m 15,4 km/h (3 Bft)
29.01.2013 17:04 10,8 C 9,0 C 99 % 15 lf 1007,3 hPa 0,0 l/m 0 min 0,0 UV-I 0 W/m 20,6 km/h (4 Bft)
29.01.2013 17:06 10,8 C 9,0 C 99 % 14 lf 1007,2 hPa 0,0 l/m 0 min 0,0 UV-I 0 W/m 18,0 km/h (3 Bft)
29.01.2013 17:08 10,8 C 9,0 C 99 % 14 lf 1007,2 hPa 0,0 l/m 0 min 0,0 UV-I 0 W/m 28,3 km/h (4 Bft)
29.01.2013 17:10 10,8 C 9,0 C 99 % 14 lf 1007,1 hPa 0,0 l/m 0 min 0,0 UV-I 0 W/m 12,9 km/h (3 Bft)
29.01.2013 17:12 10,8 C 9,0 C 99 % 14 lf 1007,2 hPa 0,0 l/m 0 min 0,0 UV-I 0 W/m 30,9 km/h (5 Bft)
29.01.2013 17:14 10,8 C 9,0 C 99 % 14 lf 1007,3 hPa 0,0 l/m 0 min 0,0 UV-I 0 W/m 20,6 km/h (4 Bft)
29.01.2013 17:16 10,8 C 9,0 C 99 % 14 lf 1007,5 hPa 0,0 l/m 0 min 0,0 UV-I 0 W/m 25,7 km/h (4 Bft)
29.01.2013 17:18 10,8 C 9,0 C 99 % 13 lf 1007,5 hPa 0,0 l/m 0 min 0,0 UV-I 0 W/m 10,3 km/h (2 Bft)
29.01.2013 17:20 10,8 C 9,0 C 99 % 13 lf 1007,5 hPa 0,0 l/m 0 min 0,0 UV-I 0 W/m 28,3 km/h (4 Bft)
29.01.2013 17:22 10,8 C 9,6 C 99 % 13 lf 1007,4 hPa 0,0 l/m 0 min 0,0 UV-I 0 W/m 28,3 km/h (4 Bft)
29.01.2013 17:24 10,8 C 9,0 C 99 % 13 lf 1007,7 hPa 0,0 l/m 0 min 0,0 UV-I 0 W/m 28,3 km/h (4 Bft)
29.01.2013 17:26 10,8 C 9,0 C 99 % 13 lf 1007,5 hPa 0,0 l/m 0 min 0,0 UV-I 0 W/m 20,6 km/h (4 Bft)
29.01.2013 17:28 10,8 C 9,0 C 99 % 12 lf 1007,3 hPa 0,0 l/m 0 min 0,0 UV-I 0 W/m 20,6 km/h (4 Bft)
29.01.2013 17:30 10,8 C 9,0 C 99 % 12 lf 1007,5 hPa 0,0 l/m 0 min 0,0 UV-I 0 W/m 15,4 km/h (3 Bft)
29.01.2013 17:32 10,8 C 9,6 C 99 % 11 lf 1007,5 hPa 0,0 l/m 0 min 0,0 UV-I 0 W/m 20,6 km/h (4 Bft)
29.01.2013 17:34 10,9 C 9,0 C 99 % 11 lf 1007,4 hPa 0,0 l/m 0 min 0,0 UV-I 0 W/m 12,9 km/h (3 Bft)
29.01.2013 17:36 10,9 C 9,0 C 99 % 10 lf 1007,5 hPa 0,0 l/m 0 min 0,0 UV-I 0 W/m 15,4 km/h (3 Bft)
29.01.2013 17:38 10,9 C 9,0 C 99 % 9 lf 1007,3 hPa 0,0 l/m 0 min 0,0 UV-I 0 W/m 12,9 km/h (3 Bft)
29.01.2013 17:40 10,9 C 9,0 C 99 % 9 lf 1007,3 hPa 0,0 l/m 0 min 0,0 UV-I 0 W/m 23,2 km/h (4 Bft)
29.01.2013 17:42 10,9 C 9,6 C 99 % 9 lf 1007,3 hPa 0,0 l/m 0 min 0,0 UV-I 0 W/m 36,0 km/h (5 Bft)
29.01.2013 17:44 10,9 C 9,6 C 98 % 12 lf 1007,3 hPa 0,0 l/m 0 min 0,0 UV-I 0 W/m 20,6 km/h (4 Bft)
29.01.2013 17:46 10,9 C 9,0 C 98 % 12 lf 1007,5 hPa 0,0 l/m 0 min 0,0 UV-I 0 W/m 33,5 km/h (5 Bft)
29.01.2013 17:48 10,9 C 9,0 C 98 % 13 lf 1007,3 hPa 0,0 l/m 0 min 0,0 UV-I 0 W/m 33,5 km/h (5 Bft)
29.01.2013 17:50 11,0 C 9,0 C 98 % 14 lf 1007,5 hPa 0,0 l/m 0 min 0,0 UV-I 0 W/m 15,4 km/h (3 Bft)
29.01.2013 17:52 11,0 C 9,0 C 98 % 14 lf 1007,5 hPa 0,0 l/m 0 min 0,0 UV-I 0 W/m 28,3 km/h (4 Bft)
29.01.2013 17:54 11,0 C 9,0 C 98 % 14 lf 1007,4 hPa 0,0 l/m 0 min 0,0 UV-I 0 W/m 18,0 km/h (3 Bft)
29.01.2013 17:56 11,0 C 9,0 C 98 % 15 lf 1007,5 hPa 0,0 l/m 0 min 0,0 UV-I 0 W/m 23,2 km/h (4 Bft)
29.01.2013 17:58 11,0 C 9,0 C 98 % 14 lf 1007,5 hPa 0,0 l/m 0 min 0,0 UV-I 0 W/m 18,0 km/h (3 Bft)
29.01.2013 18:00 11,0 C 9,0 C 98 % 14 lf 1007,5 hPa 0,0 l/m 0 min 0,0 UV-I 0 W/m 15,4 km/h (3 Bft)
29.01.2013 18:02 11,0 C 9,0 C 98 % 14 lf 1007,4 hPa 0,0 l/m 0 min 0,0 UV-I 0 W/m 18,0 km/h (3 Bft)
29.01.2013 18:04 11,0 C 9,0 C 98 % 14 lf 1007,3 hPa 0,0 l/m 0 min 0,0 UV-I 0 W/m 25,7 km/h (4 Bft)
29.01.2013 18:06 11,0 C 9,0 C 98 % 14 lf 1007,5 hPa 0,0 l/m 0 min 0,0 UV-I 0 W/m 18,0 km/h (3 Bft)
29.01.2013 18:08 11,0 C 9,0 C 98 % 15 lf 1007,5 hPa 0,0 l/m 0 min 0,0 UV-I 0 W/m 15,4 km/h (3 Bft)
29.01.2013 18:10 11,0 C 9,0 C 98 % 15 lf 1007,5 hPa 0,0 l/m 0 min 0,0 UV-I 0 W/m 12,9 km/h (3 Bft)
29.01.2013 18:12 11,0 C 9,0 C 97 % 14 lf 1007,3 hPa 0,0 l/m 0 min 0,0 UV-I 0 W/m 23,2 km/h (4 Bft)
29.01.2013 18:14 11,0 C 9,0 C 97 % 14 lf 1007,3 hPa 0,0 l/m 0 min 0,0 UV-I 0 W/m 12,9 km/h (3 Bft)
29.01.2013 18:16 11,0 C 9,0 C 97 % 15 lf 1007,3 hPa 0,0 l/m 0 min 0,0 UV-I 0 W/m 15,4 km/h (3 Bft)
29.01.2013 18:18 11,0 C 9,0 C 97 % 15 lf 1007,3 hPa 0,0 l/m 0 min 0,0 UV-I 0 W/m 23,2 km/h (4 Bft)
29.01.2013 18:20 11,0 C 9,0 C 97 % 15 lf 1007,3 hPa 0,0 l/m 0 min 0,0 UV-I 0 W/m 18,0 km/h (3 Bft)
29.01.2013 18:22 11,0 C 9,0 C 97 % 15 lf 1007,2 hPa 0,0 l/m 0 min 0,0 UV-I 0 W/m 15,4 km/h (3 Bft)
29.01.2013 18:24 11,0 C 9,0 C 97 % 15 lf 1007,3 hPa 0,0 l/m 0 min 0,0 UV-I 0 W/m 28,3 km/h (4 Bft)
29.01.2013 18:26 11,0 C 9,0 C 97 % 15 lf 1007,2 hPa 0,0 l/m 0 min 0,0 UV-I 0 W/m 12,9 km/h (3 Bft)
29.01.2013 18:28 11,0 C 9,0 C 97 % 15 lf 1007,2 hPa 0,0 l/m 0 min 0,0 UV-I 0 W/m 18,0 km/h (3 Bft)
29.01.2013 18:30 11,0 C 9,0 C 97 % 15 lf 1007,2 hPa 0,0 l/m 0 min 0,0 UV-I 0 W/m 20,6 km/h (4 Bft)
29.01.2013 18:32 11,0 C 9,0 C 98 % 15 lf 1007,3 hPa 0,0 l/m 0 min 0,0 UV-I 0 W/m 23,2 km/h (4 Bft)
29.01.2013 18:34 11,0 C 9,0 C 98 % 15 lf 1007,2 hPa 0,0 l/m 0 min 0,0 UV-I 0 W/m 23,2 km/h (4 Bft)
29.01.2013 18:36 11,0 C 9,0 C 98 % 15 lf 1007,2 hPa 0,0 l/m 0 min 0,0 UV-I 0 W/m 10,3 km/h (2 Bft)
29.01.2013 18:38 11,0 C 9,0 C 98 % 15 lf 1007,4 hPa 0,2 l/m 0 min 0,0 UV-I 0 W/m 30,9 km/h (5 Bft)
29.01.2013 18:40 11,0 C 9,0 C 98 % 15 lf 1007,4 hPa 0,0 l/m 0 min 0,0 UV-I 0 W/m 25,7 km/h (4 Bft)
29.01.2013 18:42 11,0 C 9,0 C 98 % 15 lf 1007,4 hPa 0,0 l/m 0 min 0,0 UV-I 0 W/m 15,4 km/h (3 Bft)
29.01.2013 18:44 11,0 C 9,0 C 98 % 15 lf 1007,5 hPa 0,0 l/m 0 min 0,0 UV-I 0 W/m 18,0 km/h (3 Bft)
29.01.2013 18:46 11,0 C 9,0 C 98 % 15 lf 1007,5 hPa 0,0 l/m 0 min 0,0 UV-I 0 W/m 28,3 km/h (4 Bft)
29.01.2013 18:48 11,0 C 9,0 C 98 % 15 lf 1007,6 hPa 0,0 l/m 0 min 0,0 UV-I 0 W/m 25,7 km/h (4 Bft)
29.01.2013 18:50 11,0 C 9,0 C 98 % 15 lf 1007,6 hPa 0,0 l/m 0 min 0,0 UV-I 0 W/m 25,7 km/h (4 Bft)
29.01.2013 18:52 11,0 C 9,0 C 98 % 15 lf 1007,7 hPa 0,0 l/m 0 min 0,0 UV-I 0 W/m 25,7 km/h (4 Bft)
29.01.2013 18:54 11,1 C 9,0 C 98 % 15 lf 1007,7 hPa 0,0 l/m 0 min 0,0 UV-I 0 W/m 20,6 km/h (4 Bft)
29.01.2013 18:56 11,1 C 9,0 C 97 % 15 lf 1007,7 hPa 0,0 l/m 0 min 0,0 UV-I 0 W/m 25,7 km/h (4 Bft)
29.01.2013 18:58 11,1 C 9,0 C 97 % 15 lf 1007,7 hPa 0,0 l/m 0 min 0,0 UV-I 0 W/m 23,2 km/h (4 Bft)
29.01.2013 19:00 11,1 C 9,6 C 97 % 14 lf 1007,9 hPa 0,0 l/m 0 min 0,0 UV-I 0 W/m 38,6 km/h (5 Bft)
29.01.2013 19:02 11,1 C 9,6 C 97 % 14 lf 1007,8 hPa 0,0 l/m 0 min 0,0 UV-I 0 W/m 28,3 km/h (4 Bft)
29.01.2013 19:04 11,1 C 9,6 C 97 % 14 lf 1007,9 hPa 0,0 l/m 0 min 0,0 UV-I 0 W/m 30,9 km/h (5 Bft)
29.01.2013 19:06 11,2 C 9,6 C 97 % 13 lf 1008,1 hPa 0,0 l/m 0 min 0,0 UV-I 0 W/m 30,9 km/h (5 Bft)
29.01.2013 19:08 11,2 C 9,6 C 97 % 12 lf 1007,6 hPa 0,0 l/m 0 min 0,0 UV-I 0 W/m 23,2 km/h (4 Bft)
29.01.2013 19:10 11,2 C 9,6 C 97 % 12 lf 1007,8 hPa 0,0 l/m 0 min 0,0 UV-I 0 W/m 33,5 km/h (5 Bft)
29.01.2013 19:12 11,2 C 9,6 C 97 % 10 lf 1007,7 hPa 0,0 l/m 0 min 0,0 UV-I 0 W/m 30,9 km/h (5 Bft)
29.01.2013 19:14 11,2 C 9,6 C 97 % 9 lf 1007,6 hPa 0,0 l/m 0 min 0,0 UV-I 0 W/m 18,0 km/h (3 Bft)
29.01.2013 19:16 11,3 C 9,6 C 97 % 7 lf 1007,7 hPa 0,0 l/m 0 min 0,0 UV-I 0 W/m 30,9 km/h (5 Bft)
29.01.2013 19:18 11,3 C 9,6 C 97 % 4 lf 1007,7 hPa 0,0 l/m 0 min 0,0 UV-I 0 W/m 18,0 km/h (3 Bft)
29.01.2013 19:20 11,3 C 9,6 C 97 % 3 lf 1007,7 hPa 0,0 l/m 0 min 0,0 UV-I 0 W/m 36,0 km/h (5 Bft)
29.01.2013 19:22 11,3 C 9,6 C 97 % 2 lf 1007,9 hPa 0,0 l/m 0 min 0,0 UV-I 0 W/m 25,7 km/h (4 Bft)
29.01.2013 19:24 11,3 C 9,6 C 96 % 0 lf 1007,6 hPa 0,0 l/m 0 min 0,0 UV-I 0 W/m 20,6 km/h (4 Bft)
29.01.2013 19:26 11,3 C 9,6 C 97 % 0 lf 1007,5 hPa 0,0 l/m 0 min 0,0 UV-I 0 W/m 25,7 km/h (4 Bft)
29.01.2013 19:28 11,3 C 9,6 C 97 % 0 lf 1007,4 hPa 0,0 l/m 0 min 0,0 UV-I 0 W/m 12,9 km/h (3 Bft)
29.01.2013 19:30 11,3 C 9,6 C 97 % 0 lf 1007,5 hPa 0,0 l/m 0 min 0,0 UV-I 0 W/m 10,3 km/h (2 Bft)
29.01.2013 19:32 11,3 C 9,6 C 97 % 0 lf 1007,6 hPa 0,0 l/m 0 min 0,0 UV-I 0 W/m 20,6 km/h (4 Bft)
29.01.2013 19:34 11,3 C 9,6 C 96 % 0 lf 1007,4 hPa 0,0 l/m 0 min 0,0 UV-I 0 W/m 12,9 km/h (3 Bft)
29.01.2013 19:36 11,3 C 9,6 C 96 % 1 lf 1007,5 hPa 0,0 l/m 0 min 0,0 UV-I 0 W/m 30,9 km/h (5 Bft)
29.01.2013 19:38 11,3 C 9,6 C 96 % 0 lf 1007,5 hPa 0,0 l/m 0 min 0,0 UV-I 0 W/m 23,2 km/h (4 Bft)
29.01.2013 19:40 11,4 C 9,6 C 96 % 0 lf 1007,6 hPa 0,0 l/m 0 min 0,0 UV-I 0 W/m 18,0 km/h (3 Bft)
29.01.2013 19:42 11,4 C 9,6 C 96 % 0 lf 1007,6 hPa 0,0 l/m 0 min 0,0 UV-I 0 W/m 23,2 km/h (4 Bft)
29.01.2013 19:44 11,4 C 9,6 C 96 % 0 lf 1007,8 hPa 0,0 l/m 0 min 0,0 UV-I 0 W/m 18,0 km/h (3 Bft)
29.01.2013 19:46 11,4 C 9,6 C 96 % 0 lf 1007,6 hPa 0,0 l/m 0 min 0,0 UV-I 0 W/m 18,0 km/h (3 Bft)
29.01.2013 19:48 11,4 C 9,6 C 96 % 0 lf 1007,7 hPa 0,0 l/m 0 min 0,0 UV-I 0 W/m 18,0 km/h (3 Bft)
29.01.2013 19:50 11,4 C 9,6 C 96 % 0 lf 1007,9 hPa 0,0 l/m 0 min 0,0 UV-I 0 W/m 36,0 km/h (5 Bft)
29.01.2013 19:52 11,4 C 9,6 C 96 % 0 lf 1007,6 hPa 0,0 l/m 0 min 0,0 UV-I 0 W/m 20,6 km/h (4 Bft)
29.01.2013 19:54 11,4 C 9,6 C 96 % 0 lf 1007,7 hPa 0,0 l/m 0 min 0,0 UV-I 0 W/m 23,2 km/h (4 Bft)
29.01.2013 19:56 11,4 C 9,6 C 96 % 0 lf 1007,7 hPa 0,0 l/m 0 min 0,0 UV-I 0 W/m 25,7 km/h (4 Bft)
29.01.2013 19:58 11,5 C 9,6 C 96 % 0 lf 1007,7 hPa 0,0 l/m 0 min 0,0 UV-I 0 W/m 33,5 km/h (5 Bft)
29.01.2013 20:00 11,5 C 9,6 C 96 % 0 lf 1007,7 hPa 0,0 l/m 0 min 0,0 UV-I 0 W/m 15,4 km/h (3 Bft)
29.01.2013 20:02 11,5 C 9,6 C 96 % 0 lf 1007,7 hPa 0,0 l/m 0 min 0,0 UV-I 0 W/m 18,0 km/h (3 Bft)
29.01.2013 20:04 11,5 C 9,6 C 96 % 0 lf 1007,6 hPa 0,0 l/m 0 min 0,0 UV-I 0 W/m 23,2 km/h (4 Bft)
29.01.2013 20:06 11,6 C 9,6 C 96 % 0 lf 1007,6 hPa 0,0 l/m 0 min 0,0 UV-I 0 W/m 12,9 km/h (3 Bft)
29.01.2013 20:08 11,6 C 9,6 C 96 % 0 lf 1007,5 hPa 0,0 l/m 0 min 0,0 UV-I 0 W/m 23,2 km/h (4 Bft)
29.01.2013 20:10 11,6 C 10,1 C 96 % 0 lf 1007,6 hPa 0,0 l/m 0 min 0,0 UV-I 0 W/m 15,4 km/h (3 Bft)
29.01.2013 20:12 11,6 C 10,1 C 96 % 0 lf 1007,7 hPa 0,0 l/m 0 min 0,0 UV-I 0 W/m 25,7 km/h (4 Bft)
29.01.2013 20:14 11,6 C 10,1 C 96 % 0 lf 1007,6 hPa 0,0 l/m 0 min 0,0 UV-I 0 W/m 25,7 km/h (4 Bft)
29.01.2013 20:16 11,6 C 10,1 C 96 % 0 lf 1007,7 hPa 0,0 l/m 0 min 0,0 UV-I 0 W/m 12,9 km/h (3 Bft)
29.01.2013 20:18 11,6 C 10,1 C 96 % 0 lf 1007,8 hPa 0,0 l/m 0 min 0,0 UV-I 0 W/m 18,0 km/h (3 Bft)
29.01.2013 20:20 11,6 C 10,1 C 96 % 0 lf 1007,6 hPa 0,0 l/m 0 min 0,0 UV-I 0 W/m 20,6 km/h (4 Bft)
29.01.2013 20:22 11,6 C 10,1 C 96 % 0 lf 1007,5 hPa 0,0 l/m 0 min 0,0 UV-I 0 W/m 20,6 km/h (4 Bft)
29.01.2013 20:24 11,6 C 10,1 C 96 % 0 lf 1007,6 hPa 0,0 l/m 0 min 0,0 UV-I 0 W/m 20,6 km/h (4 Bft)
29.01.2013 20:26 11,6 C 10,1 C 96 % 0 lf 1007,5 hPa 0,0 l/m 0 min 0,0 UV-I 0 W/m 36,0 km/h (5 Bft)
29.01.2013 20:28 11,6 C 10,1 C 96 % 0 lf 1007,7 hPa 0,0 l/m 0 min 0,0 UV-I 0 W/m 15,4 km/h (3 Bft)
29.01.2013 20:30 11,7 C 10,1 C 96 % 0 lf 1007,5 hPa 0,0 l/m 0 min 0,0 UV-I 0 W/m 23,2 km/h (4 Bft)
29.01.2013 20:32 11,7 C 10,1 C 96 % 0 lf 1007,5 hPa 0,0 l/m 0 min 0,0 UV-I 0 W/m 18,0 km/h (3 Bft)
29.01.2013 20:34 11,7 C 10,1 C 95 % 0 lf 1007,5 hPa 0,0 l/m 0 min 0,0 UV-I 0 W/m 25,7 km/h (4 Bft)
29.01.2013 20:36 11,7 C 10,1 C 95 % 0 lf 1007,5 hPa 0,0 l/m 0 min 0,0 UV-I 0 W/m 20,6 km/h (4 Bft)
29.01.2013 20:38 11,7 C 10,7 C 95 % 0 lf 1007,6 hPa 0,0 l/m 0 min 0,0 UV-I 0 W/m 28,3 km/h (4 Bft)
29.01.2013 20:40 11,7 C 10,7 C 95 % 0 lf 1007,5 hPa 0,0 l/m 0 min 0,0 UV-I 0 W/m 25,7 km/h (4 Bft)
29.01.2013 20:42 11,8 C 10,7 C 95 % 0 lf 1007,5 hPa 0,0 l/m 0 min 0,0 UV-I 0 W/m 20,6 km/h (4 Bft)
29.01.2013 20:44 11,8 C 10,7 C 95 % 0 lf 1007,5 hPa 0,0 l/m 0 min 0,0 UV-I 0 W/m 25,7 km/h (4 Bft)
29.01.2013 20:46 11,8 C 10,7 C 95 % 0 lf 1007,5 hPa 0,0 l/m 0 min 0,0 UV-I 0 W/m 15,4 km/h (3 Bft)
29.01.2013 20:48 11,8 C 10,7 C 95 % 0 lf 1007,7 hPa 0,0 l/m 0 min 0,0 UV-I 0 W/m 18,0 km/h (3 Bft)
29.01.2013 20:50 11,8 C 10,7 C 95 % 0 lf 1007,4 hPa 0,0 l/m 0 min 0,0 UV-I 0 W/m 12,9 km/h (3 Bft)
29.01.2013 20:52 11,8 C 10,7 C 95 % 0 lf 1007,6 hPa 0,0 l/m 0 min 0,0 UV-I 0 W/m 15,4 km/h (3 Bft)
29.01.2013 20:54 11,8 C 10,7 C 95 % 0 lf 1007,5 hPa 0,0 l/m 0 min 0,0 UV-I 0 W/m 20,6 km/h (4 Bft)
29.01.2013 20:56 11,8 C 10,7 C 95 % 0 lf 1007,9 hPa 0,0 l/m 0 min 0,0 UV-I 0 W/m 41,2 km/h (6 Bft)
29.01.2013 20:58 11,9 C 10,7 C 95 % 0 lf 1007,5 hPa 0,0 l/m 0 min 0,0 UV-I 0 W/m 25,7 km/h (4 Bft)
29.01.2013 21:00 11,9 C 10,7 C 95 % 0 lf 1007,5 hPa 0,0 l/m 0 min 0,0 UV-I 0 W/m 28,3 km/h (4 Bft)
29.01.2013 21:02 11,9 C 10,7 C 95 % 0 lf 1007,5 hPa 0,0 l/m 0 min 0,0 UV-I 0 W/m 18,0 km/h (3 Bft)
29.01.2013 21:04 11,9 C 10,7 C 95 % 0 lf 1007,7 hPa 0,0 l/m 0 min 0,0 UV-I 0 W/m 18,0 km/h (3 Bft)
29.01.2013 21:06 11,9 C 10,7 C 94 % 0 lf 1007,4 hPa 0,0 l/m 0 min 0,0 UV-I 0 W/m 20,6 km/h (4 Bft)
29.01.2013 21:08 11,9 C 10,7 C 94 % 0 lf 1007,4 hPa 0,0 l/m 0 min 0,0 UV-I 0 W/m 28,3 km/h (4 Bft)
29.01.2013 21:10 11,9 C 10,7 C 94 % 0 lf 1007,5 hPa 0,0 l/m 0 min 0,0 UV-I 0 W/m 36,0 km/h (5 Bft)
29.01.2013 21:12 11,9 C 10,7 C 94 % 0 lf 1007,5 hPa 0,0 l/m 0 min 0,0 UV-I 0 W/m 25,7 km/h (4 Bft)
29.01.2013 21:14 12,0 C 10,7 C 94 % 0 lf 1007,6 hPa 0,0 l/m 0 min 0,0 UV-I 0 W/m 20,6 km/h (4 Bft)
29.01.2013 21:16 12,0 C 10,7 C 94 % 0 lf 1007,5 hPa 0,0 l/m 0 min 0,0 UV-I 0 W/m 23,2 km/h (4 Bft)
29.01.2013 21:18 12,0 C 10,7 C 94 % 0 lf 1007,6 hPa 0,0 l/m 0 min 0,0 UV-I 0 W/m 28,3 km/h (4 Bft)
29.01.2013 21:20 12,1 C 10,7 C 94 % 0 lf 1007,5 hPa 0,0 l/m 0 min 0,0 UV-I 0 W/m 20,6 km/h (4 Bft)
29.01.2013 21:22 12,1 C 10,7 C 94 % 0 lf 1007,6 hPa 0,0 l/m 0 min 0,0 UV-I 0 W/m 33,5 km/h (5 Bft)
29.01.2013 21:24 12,1 C 10,7 C 94 % 0 lf 1007,5 hPa 0,0 l/m 0 min 0,0 UV-I 0 W/m 20,6 km/h (4 Bft)
29.01.2013 21:26 12,1 C 10,7 C 94 % 0 lf 1007,4 hPa 0,0 l/m 0 min 0,0 UV-I 0 W/m 20,6 km/h (4 Bft)
29.01.2013 21:28 12,1 C 10,7 C 94 % 0 lf 1007,4 hPa 0,0 l/m 0 min 0,0 UV-I 0 W/m 20,6 km/h (4 Bft)
29.01.2013 21:30 12,1 C 10,7 C 94 % 0 lf 1007,4 hPa 0,0 l/m 0 min 0,0 UV-I 0 W/m 20,6 km/h (4 Bft)
29.01.2013 21:32 12,1 C 10,7 C 94 % 0 lf 1007,3 hPa 0,0 l/m 0 min 0,0 UV-I 0 W/m 23,2 km/h (4 Bft)
29.01.2013 21:34 12,1 C 10,7 C 94 % 0 lf 1007,4 hPa 0,0 l/m 0 min 0,0 UV-I 0 W/m 25,7 km/h (4 Bft)
29.01.2013 21:36 12,1 C 10,7 C 94 % 0 lf 1007,3 hPa 0,0 l/m 0 min 0,0 UV-I 0 W/m 30,9 km/h (5 Bft)
29.01.2013 21:38 12,2 C 10,7 C 94 % 0 lf 1007,4 hPa 0,0 l/m 0 min 0,0 UV-I 0 W/m 28,3 km/h (4 Bft)
29.01.2013 21:40 12,2 C 10,7 C 94 % 0 lf 1007,3 hPa 0,0 l/m 0 min 0,0 UV-I 0 W/m 15,4 km/h (3 Bft)
29.01.2013 21:42 12,2 C 10,7 C 94 % 0 lf 1007,4 hPa 0,0 l/m 0 min 0,0 UV-I 0 W/m 20,6 km/h (4 Bft)
29.01.2013 21:44 12,2 C 10,7 C 93 % 0 lf 1007,4 hPa 0,0 l/m 0 min 0,0 UV-I 0 W/m 20,6 km/h (4 Bft)
29.01.2013 21:46 12,2 C 10,7 C 93 % 0 lf 1007,3 hPa 0,0 l/m 0 min 0,0 UV-I 0 W/m 15,4 km/h (3 Bft)
29.01.2013 21:48 12,2 C 10,7 C 93 % 0 lf 1007,3 hPa 0,0 l/m 0 min 0,0 UV-I 0 W/m 25,7 km/h (4 Bft)
29.01.2013 21:50 12,2 C 10,7 C 93 % 0 lf 1007,3 hPa 0,0 l/m 0 min 0,0 UV-I 0 W/m 20,6 km/h (4 Bft)
29.01.2013 21:52 12,2 C 10,7 C 93 % 0 lf 1007,2 hPa 0,0 l/m 0 min 0,0 UV-I 0 W/m 28,3 km/h (4 Bft)
29.01.2013 21:54 12,2 C 10,7 C 93 % 0 lf 1007,6 hPa 0,0 l/m 0 min 0,0 UV-I 0 W/m 38,6 km/h (5 Bft)
29.01.2013 21:56 12,2 C 10,7 C 93 % 0 lf 1007,4 hPa 0,0 l/m 0 min 0,0 UV-I 0 W/m 33,5 km/h (5 Bft)
29.01.2013 21:58 12,2 C 10,7 C 93 % 0 lf 1007,4 hPa 0,0 l/m 0 min 0,0 UV-I 0 W/m 38,6 km/h (5 Bft)
29.01.2013 22:00 12,2 C 10,7 C 93 % 0 lf 1007,3 hPa 0,0 l/m 0 min 0,0 UV-I 0 W/m 18,0 km/h (3 Bft)
29.01.2013 22:02 12,2 C 10,7 C 93 % 0 lf 1007,3 hPa 0,0 l/m 0 min 0,0 UV-I 0 W/m 25,7 km/h (4 Bft)
29.01.2013 22:04 12,2 C 10,7 C 93 % 0 lf 1007,3 hPa 0,0 l/m 0 min 0,0 UV-I 0 W/m 25,7 km/h (4 Bft)
29.01.2013 22:06 12,2 C 10,7 C 93 % 0 lf 1007,4 hPa 0,0 l/m 0 min 0,0 UV-I 0 W/m 20,6 km/h (4 Bft)
29.01.2013 22:08 12,2 C 10,7 C 93 % 0 lf 1007,6 hPa 0,0 l/m 0 min 0,0 UV-I 0 W/m 28,3 km/h (4 Bft)
29.01.2013 22:10 12,2 C 10,7 C 93 % 2 lf 1007,3 hPa 0,0 l/m 0 min 0,0 UV-I 0 W/m 18,0 km/h (3 Bft)
29.01.2013 22:12 12,2 C 10,7 C 94 % 1 lf 1007,4 hPa 0,0 l/m 0 min 0,0 UV-I 0 W/m 25,7 km/h (4 Bft)
29.01.2013 22:14 12,2 C 10,7 C 94 % 0 lf 1007,5 hPa 0,0 l/m 0 min 0,0 UV-I 0 W/m 23,2 km/h (4 Bft)
29.01.2013 22:16 12,2 C 10,7 C 94 % 0 lf 1007,5 hPa 0,0 l/m 0 min 0,0 UV-I 0 W/m 20,6 km/h (4 Bft)
29.01.2013 22:18 12,2 C 10,7 C 94 % 0 lf 1007,5 hPa 0,0 l/m 0 min 0,0 UV-I 0 W/m 15,4 km/h (3 Bft)
29.01.2013 22:20 12,1 C 10,7 C 94 % 0 lf 1007,4 hPa 0,0 l/m 0 min 0,0 UV-I 0 W/m 18,0 km/h (3 Bft)
29.01.2013 22:22 12,1 C 10,7 C 94 % 0 lf 1007,6 hPa 0,0 l/m 0 min 0,0 UV-I 0 W/m 28,3 km/h (4 Bft)
29.01.2013 22:24 12,1 C 10,7 C 94 % 0 lf 1007,5 hPa 0,0 l/m 0 min 0,0 UV-I 0 W/m 12,9 km/h (3 Bft)
29.01.2013 22:26 12,1 C 10,7 C 94 % 0 lf 1007,4 hPa 0,0 l/m 0 min 0,0 UV-I 0 W/m 12,9 km/h (3 Bft)
29.01.2013 22:28 12,1 C 10,7 C 94 % 0 lf 1007,6 hPa 0,0 l/m 0 min 0,0 UV-I 0 W/m 20,6 km/h (4 Bft)
29.01.2013 22:30 12,1 C 10,7 C 94 % 0 lf 1007,4 hPa 0,0 l/m 0 min 0,0 UV-I 0 W/m 28,3 km/h (4 Bft)
29.01.2013 22:32 12,1 C 10,7 C 94 % 0 lf 1007,6 hPa 0,0 l/m 0 min 0,0 UV-I 0 W/m 20,6 km/h (4 Bft)
29.01.2013 22:34 12,1 C 10,7 C 94 % 0 lf 1007,3 hPa 0,0 l/m 0 min 0,0 UV-I 0 W/m 15,4 km/h (3 Bft)
29.01.2013 22:36 12,1 C 10,7 C 95 % 0 lf 1007,4 hPa 0,0 l/m 0 min 0,0 UV-I 0 W/m 12,9 km/h (3 Bft)
29.01.2013 22:38 12,1 C 10,7 C 95 % 0 lf 1007,4 hPa 0,0 l/m 0 min 0,0 UV-I 0 W/m 20,6 km/h (4 Bft)
29.01.2013 22:40 12,1 C 10,7 C 95 % 0 lf 1007,5 hPa 0,0 l/m 0 min 0,0 UV-I 0 W/m 28,3 km/h (4 Bft)
29.01.2013 22:42 12,1 C 10,7 C 95 % 0 lf 1007,5 hPa 0,0 l/m 0 min 0,0 UV-I 0 W/m 18,0 km/h (3 Bft)
29.01.2013 22:44 12,1 C 10,7 C 95 % 0 lf 1007,6 hPa 0,0 l/m 0 min 0,0 UV-I 0 W/m 20,6 km/h (4 Bft)
29.01.2013 22:46 12,1 C 10,7 C 95 % 0 lf 1007,4 hPa 0,0 l/m 0 min 0,0 UV-I 0 W/m 18,0 km/h (3 Bft)
29.01.2013 22:48 12,1 C 10,7 C 95 % 0 lf 1007,4 hPa 0,0 l/m 0 min 0,0 UV-I 0 W/m 23,2 km/h (4 Bft)
29.01.2013 22:50 12,1 C 10,7 C 95 % 0 lf 1007,6 hPa 0,0 l/m 0 min 0,0 UV-I 0 W/m 20,6 km/h (4 Bft)
29.01.2013 22:52 12,1 C 10,7 C 95 % 0 lf 1007,4 hPa 0,0 l/m 0 min 0,0 UV-I 0 W/m 15,4 km/h (3 Bft)
29.01.2013 22:54 12,1 C 10,7 C 95 % 1 lf 1007,5 hPa 0,0 l/m 0 min 0,0 UV-I 0 W/m 20,6 km/h (4 Bft)
29.01.2013 22:56 12,1 C 10,7 C 95 % 1 lf 1007,5 hPa 0,0 l/m 0 min 0,0 UV-I 0 W/m 18,0 km/h (3 Bft)
29.01.2013 22:58 12,1 C 10,7 C 95 % 0 lf 1007,6 hPa 0,0 l/m 0 min 0,0 UV-I 0 W/m 12,9 km/h (3 Bft)
29.01.2013 23:00 12,1 C 10,7 C 94 % 0 lf 1007,4 hPa 0,0 l/m 0 min 0,0 UV-I 0 W/m 15,4 km/h (3 Bft)
29.01.2013 23:02 12,2 C 10,7 C 94 % 0 lf 1007,4 hPa 0,0 l/m 0 min 0,0 UV-I 0 W/m 20,6 km/h (4 Bft)
29.01.2013 23:06 12,2 C 10,7 C 94 % 0 lf 1007,4 hPa 0,0 l/m 0 min 0,0 UV-I 0 W/m 18,0 km/h (3 Bft)
29.01.2013 23:08 12,2 C 11,2 C 94 % 0 lf 1007,4 hPa 0,0 l/m 0 min 0,0 UV-I 0 W/m 38,6 km/h (5 Bft)
29.01.2013 23:10 12,2 C 11,2 C 94 % 0 lf 1007,3 hPa 0,0 l/m 0 min 0,0 UV-I 0 W/m 23,2 km/h (4 Bft)
29.01.2013 23:12 12,2 C 10,7 C 94 % 0 lf 1007,3 hPa 0,0 l/m 0 min 0,0 UV-I 0 W/m 15,4 km/h (3 Bft)
29.01.2013 23:14 12,3 C 11,2 C 94 % 0 lf 1007,3 hPa 0,0 l/m 0 min 0,0 UV-I 0 W/m 18,0 km/h (3 Bft)
29.01.2013 23:16 12,3 C 11,2 C 94 % 0 lf 1007,2 hPa 0,0 l/m 0 min 0,0 UV-I 0 W/m 25,7 km/h (4 Bft)
29.01.2013 23:18 12,3 C 11,2 C 94 % 0 lf 1007,3 hPa 0,0 l/m 0 min 0,0 UV-I 0 W/m 20,6 km/h (4 Bft)
29.01.2013 23:20 12,3 C 11,2 C 94 % 0 lf 1007,3 hPa 0,0 l/m 0 min 0,0 UV-I 0 W/m 25,7 km/h (4 Bft)
29.01.2013 23:22 12,3 C 11,2 C 94 % 0 lf 1007,4 hPa 0,0 l/m 0 min 0,0 UV-I 0 W/m 28,3 km/h (4 Bft)
29.01.2013 23:24 12,4 C 11,2 C 93 % 0 lf 1007,3 hPa 0,0 l/m 0 min 0,0 UV-I 0 W/m 20,6 km/h (4 Bft)
29.01.2013 23:26 12,4 C 11,2 C 93 % 0 lf 1007,3 hPa 0,0 l/m 0 min 0,0 UV-I 0 W/m 12,9 km/h (3 Bft)
29.01.2013 23:28 12,4 C 11,2 C 93 % 1 lf 1007,5 hPa 0,0 l/m 0 min 0,0 UV-I 0 W/m 54,1 km/h (7 Bft)
29.01.2013 23:30 12,4 C 11,2 C 93 % 3 lf 1007,3 hPa 0,0 l/m 0 min 0,0 UV-I 0 W/m 25,7 km/h (4 Bft)
29.01.2013 23:32 12,4 C 10,7 C 93 % 11 lf 1007,5 hPa 0,0 l/m 0 min 0,0 UV-I 0 W/m 23,2 km/h (4 Bft)
29.01.2013 23:34 12,4 C 10,7 C 93 % 9 lf 1007,4 hPa 0,0 l/m 0 min 0,0 UV-I 0 W/m 25,7 km/h (4 Bft)
29.01.2013 23:36 12,4 C 10,7 C 94 % 3 lf 1007,3 hPa 0,0 l/m 0 min 0,0 UV-I 0 W/m 15,4 km/h (3 Bft)
29.01.2013 23:38 12,4 C 10,7 C 94 % 0 lf 1007,5 hPa 0,0 l/m 0 min 0,0 UV-I 0 W/m 23,2 km/h (4 Bft)
29.01.2013 23:40 12,4 C 10,7 C 94 % 1 lf 1007,5 hPa 0,0 l/m 0 min 0,0 UV-I 0 W/m 25,7 km/h (4 Bft)
29.01.2013 23:42 12,3 C 10,7 C 94 % 1 lf 1007,6 hPa 0,0 l/m 0 min 0,0 UV-I 0 W/m 30,9 km/h (5 Bft)
29.01.2013 23:44 12,3 C 10,7 C 94 % 0 lf 1007,6 hPa 0,0 l/m 0 min 0,0 UV-I 0 W/m 28,3 km/h (4 Bft)
29.01.2013 23:46 12,3 C 10,7 C 94 % 0 lf 1007,7 hPa 0,0 l/m 0 min 0,0 UV-I 0 W/m 20,6 km/h (4 Bft)
29.01.2013 23:48 12,3 C 10,7 C 94 % 1 lf 1007,6 hPa 0,0 l/m 0 min 0,0 UV-I 0 W/m 25,7 km/h (4 Bft)
29.01.2013 23:50 12,3 C 10,7 C 94 % 0 lf 1007,7 hPa 0,0 l/m 0 min 0,0 UV-I 0 W/m 23,2 km/h (4 Bft)
29.01.2013 23:52 12,3 C 10,7 C 95 % 4 lf 1007,5 hPa 0,0 l/m 0 min 0,0 UV-I 0 W/m 25,7 km/h (4 Bft)
29.01.2013 23:54 12,3 C 10,7 C 95 % 8 lf 1007,5 hPa 0,0 l/m 0 min 0,0 UV-I 0 W/m 33,5 km/h (5 Bft)
29.01.2013 23:56 12,2 C 10,7 C 95 % 5 lf 1007,6 hPa 0,0 l/m 0 min 0,0 UV-I 0 W/m 38,6 km/h (5 Bft)
29.01.2013 23:58 12,2 C 10,7 C 95 % 3 lf 1007,4 hPa 0,0 l/m 0 min 0,0 UV-I 0 W/m 10,3 km/h (2 Bft)
_ Min-Zeit 00:02 00:00 01:42 00:56 05:02 - - - - 08:24
Minimum _ 6,8 C 4,6 C 88 % 0 lf 1005,7 hPa - - - - 0,0 km/h (0 Bft)
_ Max-Zeit 23:24 23:08 09:54 00:00 19:06 00:36 00:00 00:00 11:18 03:58
Maximum _ 12,4 C 11,2 C 100 % 15 lf 1008,1 hPa 0,2 l/m 0 min 0,0 UV-I 74 W/m 56,6 km/h
W (7 Bft)
Durchschnitt _ 9,9 C 8,3 C 96 % 10 lf 1007,0 hPa #7,4 l/m #0 min. 0,0 UV-I 36 W/m 22,0 km/h (4 Bft)
© 2013 W. Hausmann